GFSGL_sfc_thetae_009.txt.gz
Theta_e
293 295 295 295 295 295 293 292 292 292 294 294 293 291 290 288 287 286 285 286 286 285 282 282 281 282 281 280 281 281 281 281 280 282 287 289 286 286 287 289 288 288 293
292 292 293 293 293 292 292 291 292 292 290 290 291 292 289 287 286 285 285 285 283 281 281 280 280 282 279 279 279 279 279 281 280 279 283 282 283 285 285 286 287 288 287
289 289 289 290 291 292 291 290 291 290 291 292 292 288 286 286 285 284 284 282 281 281 280 280 279 279 277 277 278 278 279 281 281 279 280 281 282 282 282 285 284 284 286
288 288 290 291 291 289 288 289 290 291 291 290 291 287 286 286 285 284 282 280 280 281 281 280 279 278 277 277 278 280 282 281 280 279 279 279 279 280 281 280 280 281 280
288 288 290 291 291 290 290 290 290 290 291 290 287 285 285 284 283 281 281 280 279 279 280 280 279 280 283 281 279 278 279 280 279 279 278 278 278 276 276 278 278 277 279
287 289 290 290 291 291 291 290 292 291 290 284 288 285 282 283 285 285 283 279 279 279 277 278 279 280 280 281 281 282 281 279 279 278 278 277 278 277 276 276 276 275 274
287 289 290 289 290 289 289 290 289 288 286 285 282 281 281 281 285 285 285 281 280 278 278 278 278 279 279 279 280 281 281 282 282 279 278 277 277 277 277 276 275 275 275
287 288 289 288 288 288 288 288 287 287 286 281 281 281 281 282 285 284 283 280 278 278 277 277 277 277 279 279 279 279 279 279 280 280 279 279 278 279 279 279 277 277 278
286 287 288 288 287 287 286 286 286 285 282 281 282 281 280 280 283 282 280 276 276 276 277 277 277 277 279 281 279 278 278 279 281 281 281 282 282 283 283 280 277 278 276
286 287 288 287 287 286 285 284 284 280 281 281 281 280 281 278 281 281 279 274 270 274 275 276 278 278 280 280 278 277 275 277 278 277 277 278 279 279 281 280 278 277 277
287 287 286 286 284 284 283 282 281 281 281 279 279 278 278 278 277 279 279 273 273 275 275 275 276 279 279 280 279 278 277 279 278 277 277 276 277 277 278 278 278 277 275
286 285 285 284 284 284 281 280 280 279 278 276 270 272 274 275 278 278 279 278 278 272 274 275 276 278 278 278 278 279 278 277 275 275 275 275 275 276 278 278 279 279 279
285 284 283 283 283 282 280 278 278 277 274 275 276 270 272 275 273 277 278 278 278 271 274 277 277 277 277 276 277 277 276 275 274 273 274 275 277 279 280 280 281 281 281
284 284 284 283 282 281 280 280 278 274 274 277 274 272 270 271 270 271 273 269 274 274 272 271 273 275 273 273 273 274 275 274 274 274 274 276 278 278 279 280 279 279 279
283 285 283 282 281 280 280 279 278 279 279 275 273 272 263 262 269 275 276 271 267 270 266 264 268 270 270 271 270 271 272 273 272 273 273 274 276 277 278 280 280 280 276
284 284 283 283 280 280 279 278 283 283 283 283 282 273 267 275 278 279 279 278 277 276 266 261 259 262 267 270 268 267 268 269 270 272 272 272 273 275 277 278 278 277 277
282 283 285 283 280 278 276 276 271 277 282 283 284 281 280 277 280 280 279 277 276 273 262 261 258 258 264 269 269 268 266 266 269 269 270 270 271 273 274 275 275 274 275
284 280 281 280 280 277 275 273 271 271 269 271 277 282 282 281 280 280 279 274 266 267 264 262 260 260 264 268 268 267 266 264 262 265 268 268 268 270 272 273 273 270 272
284 283 280 279 278 275 276 273 272 271 270 270 270 274 275 281 281 279 277 266 263 262 264 264 260 261 263 264 262 263 261 261 261 260 262 266 267 268 270 271 271 270 270
284 282 278 278 277 279 277 272 274 273 270 269 268 268 268 267 263 261 259 258 258 262 261 264 264 262 260 260 258 259 263 262 263 263 262 262 263 266 269 269 268 264 268
284 282 280 280 279 274 273 272 275 271 271 268 270 267 268 269 268 263 267 260 262 264 261 263 260 257 256 257 261 258 260 260 263 263 263 263 262 264 267 267 267 267 268
282 281 280 280 280 275 272 270 270 272 273 269 269 268 267 263 266 265 267 267 266 265 265 263 263 262 261 262 260 256 257 258 260 262 262 263 264 264 264 264 263 262 264
282 279 276 274 273 271 266 267 267 271 274 269 270 268 267 267 272 268 267 267 264 263 263 262 259 260 258 257 256 258 259 259 261 263 262 262 264 264 262 261 262 263 262
283 279 275 274 265 267 265 266 267 271 273 273 269 266 266 268 269 267 267 265 261 262 259 262 263 263 261 257 255 257 260 258 258 260 262 263 264 265 263 263 262 261 260
283 279 276 274 274 273 272 270 271 273 275 275 273 269 269 266 265 266 266 264 263 259 262 262 261 263 262 261 259 260 259 261 259 259 259 263 262 262 262 263 261 263 261
284 281 280 280 278 277 276 276 276 275 275 275 275 274 273 271 270 268 267 265 264 263 262 260 260 262 261 261 261 261 260 261 259 260 258 261 263 262 262 262 262 263 263

GFSGL_sfc_thetae_015.txt.gz
Theta_e
296 296 297 297 297 297 297 297 297 298 299 298 299 298 297 295 295 294 294 293 291 291 292 290 289 289 288 288 287 286 284 283 280 282 284 285 286 287 288 290 293 294 294
295 295 295 296 297 296 296 296 297 296 297 296 296 295 295 296 294 292 291 290 290 290 289 288 287 287 286 286 285 284 283 283 281 279 282 284 285 287 288 289 291 291 293
293 294 295 295 295 296 296 296 296 296 295 295 295 294 294 295 293 291 290 289 289 288 287 286 286 285 285 285 284 283 282 282 282 280 280 282 284 286 287 288 289 291 290
293 293 294 295 295 295 295 296 295 296 296 296 295 293 293 291 290 289 288 288 287 286 286 286 285 285 283 283 282 282 281 280 280 279 279 280 282 284 285 285 286 288 287
293 293 293 295 295 295 295 295 295 295 295 296 295 291 291 289 288 288 287 287 286 286 285 284 284 283 282 282 281 280 280 279 279 279 279 279 280 280 281 283 284 286 287
292 292 293 293 294 294 294 293 293 294 294 294 292 291 289 287 286 286 287 286 285 283 281 282 281 280 281 280 280 280 280 279 279 279 280 279 279 280 282 282 282 281 281
291 291 292 292 292 293 293 292 292 292 292 292 292 289 287 287 286 285 283 284 282 281 281 280 279 280 280 280 280 281 281 281 281 281 279 279 279 281 281 281 281 281 281
290 290 291 291 291 292 291 291 291 291 291 291 289 287 287 285 284 282 281 283 281 281 280 280 279 279 280 279 281 280 280 280 281 281 282 282 282 282 282 282 282 281 283
289 290 290 290 291 291 290 289 289 289 289 288 287 286 285 284 282 281 281 281 280 280 280 280 280 279 279 281 280 279 278 279 281 281 282 282 282 282 282 281 280 279 279
289 289 290 291 290 290 289 289 289 289 286 287 285 285 282 283 280 280 281 281 279 279 280 279 278 279 279 279 279 278 276 278 278 279 280 281 281 282 281 282 281 279 280
289 289 290 290 289 290 289 289 288 287 286 285 283 283 282 282 281 279 280 281 280 279 278 278 279 278 278 278 277 278 277 278 278 278 278 280 280 280 281 282 282 281 280
288 288 289 289 288 288 288 288 286 286 285 283 282 282 283 282 279 279 279 280 279 279 277 278 278 277 277 276 276 276 276 277 277 277 277 278 279 279 281 282 282 282 283
287 288 288 288 288 288 287 287 285 284 284 283 282 283 283 282 282 279 279 279 279 278 279 277 276 276 275 275 275 275 274 276 276 275 276 277 278 280 281 282 283 283 283
286 287 288 287 286 288 287 286 285 284 284 283 284 283 283 282 282 281 280 282 278 278 277 277 275 275 274 274 275 275 275 274 274 274 275 277 279 280 281 283 282 283 281
286 286 286 286 285 285 287 286 284 285 285 284 284 283 283 282 282 281 280 281 280 278 275 276 275 274 274 274 274 274 274 273 273 274 275 276 277 278 280 282 282 283 281
285 287 286 286 285 286 286 285 284 284 283 284 284 283 284 281 279 280 281 281 279 276 276 275 274 273 273 273 273 273 273 271 272 273 274 275 275 277 278 280 281 281 281
285 286 286 286 286 285 285 285 284 285 282 283 284 284 284 282 280 281 281 281 279 276 276 276 274 274 273 273 273 273 272 272 271 272 273 273 274 276 277 278 278 279 279
286 285 286 286 286 286 285 285 285 283 283 284 283 282 284 284 282 282 282 280 279 276 277 276 275 275 274 273 273 272 272 272 271 271 272 272 273 274 275 276 277 276 278
286 286 286 286 286 285 284 284 284 283 282 282 283 281 281 281 283 283 282 281 280 279 278 277 277 276 275 274 274 272 271 271 270 270 271 271 272 273 274 274 275 274 274
286 285 284 285 286 285 284 283 283 283 283 282 282 283 283 278 279 281 282 281 279 279 279 278 277 277 276 275 274 273 272 272 271 271 270 271 271 272 272 273 274 274 275
286 285 284 285 285 284 284 283 283 283 282 282 282 284 279 280 282 282 282 280 279 280 280 279 279 277 276 275 274 274 272 272 271 270 271 271 271 271 272 273 273 274 274
285 285 285 284 285 284 283 284 284 283 282 282 282 283 275 277 281 282 282 281 281 281 281 280 279 279 278 277 276 275 273 272 272 271 271 270 271 272 271 271 272 272 272
285 285 285 284 284 284 283 283 283 282 282 282 282 282 282 281 281 282 282 282 282 281 280 279 279 278 277 275 275 275 273 273 273 271 270 270 271 272 271 271 271 271 270
285 284 284 284 284 284 282 282 282 280 281 281 282 282 281 282 282 282 282 282 281 280 279 277 277 277 277 276 275 274 273 273 273 271 268 269 270 271 271 271 271 270 270
284 284 284 284 284 284 283 282 282 282 282 282 282 282 283 283 282 282 283 282 280 280 279 275 276 276 275 274 274 273 272 270 270 268 270 269 269 269 270 270 270 271 270
283 284 285 285 284 284 283 283 283 283 283 283 283 283 283 283 283 283 282 282 280 279 279 278 276 274 275 275 274 272 268 267 269 266 269 270 270 270 271 269 269 271 270

GFSGL_sfc_thetae_018.txt.gz
Theta_e
301 301 301 301 301 300 300 299 298 299 299 298 299 300 300 299 298 299 298 297 295 294 294 292 293 293 291 291 291 290 288 287 284 286 287 289 288 288 290 290 292 292 293
300 299 299 300 300 299 299 298 299 298 298 298 298 298 298 297 298 297 297 295 293 292 292 292 291 290 291 291 289 288 287 286 284 282 284 285 286 287 288 288 289 291 291
299 298 299 299 298 298 298 298 298 297 297 298 298 297 297 297 297 296 294 293 293 292 292 291 290 290 289 288 288 287 285 284 284 282 282 284 285 286 285 287 288 290 291
299 298 297 298 298 298 298 297 297 297 297 297 297 297 297 295 294 293 293 292 292 291 291 290 290 288 287 286 285 284 284 283 283 282 281 282 284 285 285 284 286 288 289
298 298 298 298 298 298 298 297 297 297 296 296 296 296 296 294 293 292 292 291 291 290 290 288 287 285 282 282 282 282 282 281 280 280 280 280 281 282 282 283 283 285 287
297 297 298 297 297 297 297 296 296 295 295 295 295 295 295 293 286 286 286 290 289 288 286 286 286 284 283 281 281 281 281 281 280 280 281 280 280 282 283 283 283 283 281
296 296 296 296 295 295 295 295 295 294 295 294 295 295 293 292 286 284 283 288 287 286 285 284 284 283 283 283 282 281 282 282 282 282 280 280 281 283 283 282 282 282 282
295 294 295 294 294 294 295 294 294 294 293 293 293 292 292 289 284 282 282 287 286 285 284 284 284 283 283 281 281 281 282 283 283 282 282 282 282 283 283 283 283 282 284
293 292 293 293 293 293 293 293 294 293 293 292 292 291 291 290 283 281 282 286 285 284 284 284 282 282 281 280 280 279 280 281 282 282 282 281 282 282 283 283 281 280 280
291 292 292 292 293 292 292 293 294 293 291 291 290 291 285 288 282 281 282 286 284 283 284 283 280 280 279 279 279 279 278 279 279 280 281 282 282 282 282 283 281 279 280
292 292 292 292 292 292 293 293 293 292 291 290 289 289 288 287 286 280 280 284 284 282 282 282 282 279 278 278 278 279 278 278 278 279 280 281 282 282 283 284 284 282 280
291 291 291 292 292 292 292 292 292 291 289 289 287 288 289 287 282 281 280 280 281 282 281 282 281 278 278 277 277 276 276 277 279 279 279 280 281 281 283 284 285 285 284
291 291 291 292 291 291 291 291 291 290 289 288 287 287 287 288 287 281 280 280 280 281 282 280 278 277 277 278 276 276 276 279 277 277 277 278 280 282 284 284 285 285 286
289 290 291 289 288 288 289 289 290 289 288 287 286 286 287 286 286 286 285 285 281 281 282 282 279 277 277 278 279 279 279 277 276 277 277 279 281 282 283 284 284 285 283
289 289 289 289 288 287 287 287 289 290 288 287 287 286 286 285 285 285 284 284 284 282 279 281 281 280 279 279 279 278 278 277 276 277 278 278 279 280 281 283 283 285 283
288 289 290 289 288 288 287 287 286 285 284 284 284 285 288 285 282 282 281 281 281 279 280 280 280 280 278 278 278 278 278 276 276 276 277 277 277 278 279 281 282 282 282
288 288 288 288 287 287 288 287 286 287 285 284 284 285 285 285 284 282 282 282 281 279 279 280 280 279 279 278 278 277 277 277 275 276 276 276 277 277 279 279 280 280 280
288 285 288 288 288 288 288 287 287 286 285 286 285 284 284 284 285 283 282 282 281 279 280 280 280 280 280 279 278 277 277 277 277 275 275 276 276 276 277 277 278 278 278
288 288 288 288 286 286 287 287 287 286 285 285 286 284 285 283 283 284 283 282 281 281 282 281 281 280 280 280 279 278 277 276 275 275 276 275 275 276 276 277 277 277 277
288 286 286 287 287 285 286 286 285 286 285 285 284 285 286 283 283 283 284 284 283 282 283 282 282 282 281 280 279 279 278 277 277 276 276 276 276 275 275 276 277 276 277
289 288 286 287 287 286 287 286 286 286 286 285 287 287 284 285 284 284 285 285 284 284 284 283 283 282 281 280 279 279 278 277 277 275 275 275 275 275 275 275 276 276 276
288 287 287 287 287 286 284 286 286 286 285 286 286 286 284 285 284 285 286 286 286 286 286 285 284 283 282 281 280 279 278 277 277 276 275 274 275 276 276 275 274 274 275
288 287 286 286 286 285 285 285 285 286 286 285 285 286 286 286 285 285 286 286 287 287 286 285 284 283 283 282 282 280 278 278 277 277 274 274 275 276 276 275 274 273 273
288 286 283 284 285 286 286 285 285 284 284 285 285 285 286 286 285 285 285 285 286 285 285 284 284 283 283 282 281 281 280 279 278 276 273 274 274 275 275 274 274 273 273
286 285 285 285 285 285 285 285 285 285 284 284 284 285 286 286 285 285 285 285 285 285 285 284 284 283 282 281 281 280 279 275 275 275 275 273 273 272 273 273 273 274 273
285 286 285 285 285 285 285 284 284 284 284 285 285 285 285 285 285 285 285 285 285 285 285 285 283 282 282 281 280 279 277 273 273 271 274 274 274 274 274 273 272 273 273

GFSGL_sfc_thetae_021.txt.gz
Theta_e
303 302 304 302 302 303 302 301 300 300 299 299 299 298 298 298 299 298 298 298 297 297 296 294 294 294 292 292 293 291 290 289 285 288 289 290 289 289 289 290 291 292 292
303 301 302 302 302 301 301 301 300 299 299 298 298 298 298 298 297 297 297 297 296 294 294 293 292 292 291 291 290 289 289 289 287 284 286 286 286 287 288 288 288 289 290
301 301 301 301 301 301 300 300 299 299 298 298 297 297 297 297 296 296 294 294 294 293 293 292 291 290 289 288 288 287 287 286 286 284 283 285 286 287 286 287 287 288 289
302 301 300 301 301 301 300 299 299 298 297 297 297 297 297 296 295 295 294 294 293 293 292 292 291 289 287 286 284 284 284 283 283 282 282 282 283 285 286 285 285 287 287
301 300 300 301 301 300 299 299 299 298 297 297 296 296 296 296 294 294 293 293 292 291 291 290 289 286 283 283 283 282 282 281 280 280 280 281 281 282 282 284 284 284 286
301 299 300 300 299 299 298 298 297 297 296 296 295 295 295 295 287 286 286 290 290 289 288 288 288 287 286 284 283 282 282 280 280 280 280 279 279 281 283 283 283 281 279
300 299 299 298 298 297 296 295 295 296 296 295 294 294 294 293 287 285 283 288 289 289 287 286 285 285 285 285 284 283 283 284 283 282 280 280 280 282 282 281 281 282 281
298 297 297 297 295 295 294 295 295 296 295 294 294 293 293 290 285 283 283 287 289 288 287 286 285 285 284 281 281 281 281 282 283 282 282 281 282 282 281 281 281 282 283
296 296 295 294 293 293 293 294 294 295 294 294 293 292 291 290 284 283 282 287 287 286 286 286 284 283 281 280 279 279 279 281 283 283 282 282 282 283 283 282 280 280 279
295 294 293 293 293 292 293 293 294 294 293 293 292 292 287 291 284 283 282 286 285 285 285 285 282 280 279 279 279 278 277 279 278 279 280 282 283 283 284 283 282 279 279
293 293 292 293 293 293 293 293 293 293 293 292 291 291 291 290 288 283 282 284 285 284 283 283 284 281 279 279 278 278 278 278 278 279 280 281 282 283 284 284 284 283 281
292 292 292 293 293 293 293 293 293 293 292 291 290 290 291 290 285 283 282 281 282 282 282 283 284 280 279 278 278 278 277 278 280 279 279 280 280 281 283 284 285 285 286
291 291 292 293 293 292 291 290 291 291 290 290 288 288 288 290 290 284 283 281 281 281 284 283 280 280 279 280 279 278 278 280 278 277 277 278 280 282 283 285 286 287 286
290 290 291 290 289 290 291 290 289 290 290 288 288 287 288 288 289 289 285 284 281 282 283 284 282 280 280 279 280 281 281 280 278 277 277 279 281 282 282 284 284 284 285
289 290 290 290 290 290 290 289 289 291 289 289 289 288 289 287 287 287 286 286 286 283 281 282 282 282 281 281 281 281 280 280 278 278 278 278 279 279 280 283 283 283 283
288 289 290 290 290 290 289 288 288 287 287 285 285 286 290 287 286 284 284 283 281 281 281 281 281 282 280 280 280 279 280 279 278 277 277 277 277 277 278 281 282 281 281
287 288 289 288 290 288 288 287 287 289 286 285 285 285 285 286 286 285 283 283 282 281 279 281 282 281 281 280 280 279 279 279 278 278 277 277 277 277 278 279 279 279 279
290 286 289 290 289 288 288 287 289 288 287 288 286 285 285 285 285 285 284 283 281 282 281 281 281 282 281 281 280 280 279 279 278 277 277 277 277 276 277 277 278 277 278
290 290 290 290 289 287 287 286 286 287 287 287 287 285 285 285 285 285 284 283 282 282 283 283 284 283 282 282 282 281 279 278 278 277 277 277 277 276 276 276 277 277 278
291 287 287 288 288 288 287 287 287 287 287 286 286 287 287 286 284 284 284 284 284 284 284 283 284 284 284 282 282 281 280 279 278 278 278 277 277 277 276 275 276 276 276
291 290 287 288 288 288 288 286 287 287 286 286 286 287 286 287 286 286 286 286 285 285 285 285 285 285 285 283 281 281 280 279 278 277 277 277 276 275 277 277 276 276 276
290 289 289 288 288 287 287 287 287 286 286 285 287 287 285 287 287 286 286 286 287 287 287 286 286 286 285 283 283 282 280 279 279 278 277 276 276 277 277 276 276 275 275
289 289 288 287 287 286 286 286 286 286 286 286 287 287 287 286 286 286 286 286 287 287 288 287 286 286 287 285 285 283 280 280 280 279 277 276 276 276 276 276 276 275 274
289 289 287 286 286 286 285 285 286 286 286 286 285 285 286 286 285 286 286 286 287 286 286 286 286 285 285 285 284 283 282 282 280 279 276 276 275 276 276 275 275 275 274
289 287 286 286 285 285 284 285 285 285 285 285 285 285 286 286 286 286 286 286 286 285 286 285 286 285 285 284 283 282 282 280 279 278 277 276 275 274 274 274 274 274 275
285 286 286 286 285 284 284 283 283 283 283 283 284 284 285 285 286 286 286 286 286 286 286 286 286 285 284 284 284 282 281 279 277 276 276 276 275 275 275 275 274 274 274

GFSGL_sfc_thetae_024.txt.gz
Theta_e
305 304 302 303 303 302 301 300 298 298 298 297 297 296 296 296 296 295 294 294 294 293 293 293 293 292 288 288 287 287 285 285 281 283 285 285 284 284 285 286 287 286 287
304 302 302 303 302 301 300 299 299 297 298 296 296 296 296 296 295 294 293 293 292 291 291 290 290 291 288 287 286 284 283 283 281 279 282 282 282 284 284 284 286 288 287
303 302 301 302 301 301 299 299 299 297 297 296 296 295 295 295 295 294 293 292 291 290 290 289 289 288 285 284 282 281 281 283 281 279 279 281 282 282 282 283 284 285 287
303 302 299 301 301 300 299 299 298 298 296 295 295 295 295 294 294 294 292 290 290 290 290 289 288 286 282 281 281 279 280 278 279 278 278 279 279 281 282 280 281 282 283
303 300 300 301 300 299 300 299 298 297 296 296 295 294 294 294 292 291 290 289 288 288 288 288 286 285 284 282 280 278 278 277 277 277 277 278 278 278 277 280 280 281 282
302 300 301 301 299 299 299 297 297 296 295 295 294 294 293 292 288 287 286 285 287 286 284 284 284 286 285 284 285 284 281 277 276 277 277 277 277 278 280 279 278 277 277
300 300 300 299 298 297 296 295 294 294 295 294 294 293 292 288 287 286 284 284 284 284 283 283 283 285 283 281 282 282 281 283 283 280 278 279 279 279 278 277 276 276 276
299 298 298 298 296 295 294 293 294 294 293 293 292 292 291 288 287 285 284 281 284 284 283 283 281 281 279 279 278 277 278 279 279 280 277 277 278 279 279 279 278 278 279
297 296 296 295 293 293 292 292 293 292 292 292 292 291 290 285 286 285 283 282 283 283 284 283 283 280 280 281 277 276 276 277 281 281 280 281 283 284 283 280 277 276 275
294 293 293 293 292 292 292 292 292 292 292 292 291 290 288 285 285 284 283 281 281 281 282 282 281 280 280 280 276 275 274 276 276 276 277 280 281 281 284 283 280 277 276
293 293 292 293 292 292 292 291 291 291 290 288 286 287 287 287 283 285 284 281 280 280 280 279 280 281 280 280 279 276 275 277 277 276 278 278 280 280 281 281 282 282 279
292 292 291 292 292 292 291 290 290 289 288 287 286 286 286 286 286 285 284 283 283 278 279 279 280 282 281 280 279 279 279 278 274 273 276 277 277 278 280 281 282 284 285
291 290 291 291 291 291 289 288 287 287 287 286 285 285 284 285 284 285 284 283 282 277 279 281 282 282 282 280 282 280 277 275 273 270 273 276 277 279 281 280 281 283 284
289 289 290 289 289 289 289 288 287 285 285 285 285 284 284 284 285 282 281 280 281 280 280 280 279 278 276 277 276 279 277 276 274 271 271 274 277 278 278 279 279 280 281
289 289 289 288 288 288 289 288 285 286 286 286 285 285 285 282 283 285 284 284 284 282 277 275 275 277 277 276 276 277 277 277 274 272 270 273 275 277 277 278 279 279 278
288 288 287 287 287 288 287 287 288 287 287 287 286 285 285 287 286 285 285 285 284 281 276 273 272 274 275 275 273 274 274 274 274 273 272 272 272 274 275 277 279 278 277
286 286 287 285 286 285 285 285 284 287 288 287 286 286 286 285 286 286 286 284 284 280 274 273 274 274 278 276 274 274 272 272 273 274 271 271 271 272 274 276 276 277 276
287 286 286 287 286 285 284 285 284 283 282 284 286 285 286 285 285 285 285 284 280 280 278 277 277 276 276 276 275 274 273 272 271 271 269 273 270 271 270 274 274 274 275
288 288 288 287 286 286 286 285 284 284 283 283 285 284 282 286 286 285 285 281 279 278 280 279 279 278 279 277 274 273 273 271 270 267 270 273 273 273 272 270 273 273 273
289 286 287 286 286 286 286 285 285 284 283 284 285 284 284 284 282 282 281 281 280 280 280 280 280 278 279 278 276 274 272 271 275 273 271 269 272 268 270 272 268 271 273
289 289 286 286 287 286 286 285 285 285 284 283 284 284 283 285 284 283 282 282 282 282 282 281 281 281 281 280 277 276 274 272 272 270 271 270 267 266 273 272 272 270 273
288 288 287 287 286 285 285 284 283 283 284 283 283 284 283 285 285 284 284 284 284 284 284 283 283 283 282 281 280 277 276 273 271 271 270 271 268 268 271 271 272 269 269
286 286 286 286 286 283 283 283 283 283 284 285 284 284 283 284 285 285 284 285 285 285 285 285 284 283 284 283 282 280 278 277 274 273 269 269 269 268 269 267 271 268 266
284 285 285 285 285 283 283 283 283 282 284 284 284 284 284 284 285 285 285 285 285 285 285 285 285 284 284 284 283 282 279 280 275 273 270 268 268 269 269 268 267 268 266
283 283 283 283 285 284 283 281 281 280 282 282 283 283 282 282 283 284 285 285 285 285 285 285 285 285 285 284 283 282 280 279 277 273 272 268 267 267 266 266 265 267 268
281 282 283 283 283 284 283 280 279 280 279 280 279 280 280 279 279 280 280 280 280 282 283 284 285 285 285 284 284 282 280 279 276 274 274 272 268 266 266 266 267 265 267

GFSGL_sfc_thetae_030.txt.gz
Theta_e
299 297 298 298 298 299 299 297 297 296 296 295 293 294 292 292 291 290 290 290 290 290 289 289 290 290 288 287 285 283 282 281 277 278 279 279 278 279 281 282 283 282 283
299 298 297 298 300 299 298 297 296 295 295 293 293 292 292 292 292 290 290 290 290 288 289 288 288 291 286 284 282 280 279 279 277 275 276 277 277 278 279 279 282 284 283
300 298 297 298 299 298 298 296 295 293 293 292 292 292 292 292 292 292 291 290 288 288 289 287 286 286 283 281 280 278 277 280 277 275 275 277 277 278 278 279 280 280 283
299 297 297 299 299 296 297 294 294 293 294 292 292 292 293 291 292 292 290 288 288 288 288 287 285 284 281 279 278 277 277 276 276 275 276 276 276 278 278 277 278 279 279
298 297 298 299 298 297 294 293 294 293 293 293 292 292 292 292 291 290 289 287 285 284 285 284 283 283 286 281 279 277 277 276 275 275 275 275 276 276 276 277 277 277 277
299 298 299 299 298 296 295 293 291 292 292 292 291 291 290 291 290 290 287 284 285 284 282 281 281 284 285 285 284 283 280 276 274 273 274 274 274 274 275 275 275 274 273
299 300 298 296 294 293 293 292 291 291 292 291 290 290 290 290 289 289 287 283 282 281 281 280 281 283 282 280 280 280 279 279 279 275 273 273 273 274 275 275 275 275 275
296 295 294 293 292 292 292 292 292 291 290 289 289 290 289 289 288 288 286 281 281 282 281 280 280 279 279 279 277 277 277 277 277 277 275 275 275 277 278 279 279 279 279
291 291 292 291 292 293 292 291 291 290 289 289 289 289 288 286 288 287 284 280 281 281 282 281 281 279 281 282 278 277 276 276 279 280 280 281 281 281 281 280 277 276 274
291 292 293 293 292 291 291 290 290 289 288 288 287 287 287 284 287 287 284 279 280 280 280 280 283 280 282 281 277 275 273 275 276 276 276 277 278 278 281 278 278 275 275
294 294 294 293 292 292 291 289 287 286 285 283 283 283 283 284 283 287 287 280 280 280 280 279 279 282 282 282 282 276 274 277 277 277 276 275 276 277 278 278 278 277 276
293 292 292 291 290 289 287 285 285 283 282 282 279 281 281 284 285 286 287 285 282 279 279 279 279 282 283 283 281 281 282 279 272 271 271 272 273 274 276 277 278 278 279
289 288 288 288 288 287 284 283 282 282 278 280 280 279 280 282 284 286 286 286 284 279 280 280 281 283 283 282 283 282 278 274 269 266 270 270 272 274 277 276 278 278 279
286 286 286 285 284 284 284 283 283 279 278 281 280 280 279 280 281 281 283 284 284 281 280 281 278 278 275 275 275 278 276 274 273 270 268 269 271 272 272 274 274 276 276
285 285 284 281 283 283 283 283 282 282 282 280 280 280 277 278 281 284 282 282 282 281 279 274 273 273 275 276 274 275 275 273 271 267 267 268 269 271 272 273 273 275 272
284 283 281 280 280 282 282 282 285 285 286 286 286 283 282 284 285 286 287 286 285 283 278 277 276 274 273 275 272 273 271 271 272 270 267 268 268 267 270 273 273 272 272
283 283 282 281 281 281 281 281 281 284 285 286 286 286 286 286 286 286 287 286 286 284 280 279 278 273 272 273 273 273 273 270 270 271 270 266 265 268 267 269 270 271 272
283 283 282 283 283 283 282 282 282 283 282 279 282 284 285 286 286 286 286 286 283 283 278 277 274 273 273 274 274 273 272 269 269 269 266 262 260 264 265 266 268 264 269
284 281 281 284 284 284 284 284 283 284 284 283 281 279 279 284 285 286 286 284 282 280 280 278 276 275 274 275 275 272 270 269 269 265 264 263 259 264 264 265 265 266 265
282 281 281 283 282 283 284 284 284 284 284 283 281 283 281 274 280 280 279 283 283 280 280 280 279 278 277 276 276 276 273 273 271 266 264 261 259 261 262 262 262 266 267
277 277 277 278 278 279 280 282 282 282 283 283 283 283 278 278 280 278 279 280 283 283 282 280 280 279 279 278 278 276 275 275 274 272 269 266 259 262 263 262 263 270 268
275 276 277 278 278 278 278 279 280 280 280 281 283 280 277 276 279 281 281 282 282 282 283 283 281 280 280 279 278 277 276 276 275 273 270 267 266 265 262 262 261 262 264
273 272 273 274 274 274 274 275 276 276 278 280 279 278 280 280 281 281 281 281 282 282 284 284 283 282 281 281 282 280 277 277 278 275 273 268 267 265 261 261 262 261 261
269 270 269 269 269 269 270 271 272 272 274 274 275 275 274 275 274 274 274 273 275 275 276 277 278 282 283 282 282 282 282 281 280 277 276 272 270 266 261 261 262 261 260
266 266 265 266 265 265 267 267 267 269 269 269 269 270 271 271 272 271 270 272 270 271 273 274 275 275 276 274 280 282 282 281 281 279 277 274 271 267 265 264 262 262 260
265 266 264 264 263 264 264 263 265 265 265 266 267 267 267 267 268 267 268 269 267 268 270 271 272 273 273 273 274 276 281 282 280 279 277 275 272 269 265 266 265 261 262

GFSGL_sfc_thetae_033.txt.gz
Theta_e
300 299 298 297 298 297 297 297 296 297 296 296 295 294 292 291 291 291 290 289 289 288 288 287 288 289 288 287 286 284 282 282 279 278 278 278 277 277 279 279 281 280 281
300 299 299 297 297 298 297 297 297 296 295 295 293 292 291 291 291 290 289 289 288 287 287 287 288 290 286 284 283 281 280 278 277 275 276 276 276 277 278 278 281 283 281
300 299 297 297 298 298 297 296 295 293 293 292 291 291 291 292 291 290 289 289 287 287 287 286 286 285 283 281 280 279 277 279 277 275 275 276 276 277 277 278 279 279 282
301 299 298 298 299 298 298 296 295 294 293 292 292 292 292 291 290 290 290 288 287 287 287 286 285 284 282 280 279 278 277 276 276 275 275 275 275 277 277 276 276 278 278
299 298 299 299 299 298 297 295 295 294 294 293 293 293 293 292 290 290 288 287 285 284 284 284 283 283 285 282 279 277 276 275 275 274 274 274 275 274 274 275 274 275 277
299 299 299 299 296 296 294 293 292 292 293 293 292 292 291 290 290 290 288 285 284 283 282 281 281 285 286 286 285 283 279 276 274 273 273 273 273 273 273 273 273 274 273
299 299 296 294 292 292 293 292 292 292 292 291 290 290 289 290 290 290 289 283 282 281 281 281 280 282 283 281 283 282 281 280 280 275 273 273 272 274 274 274 275 276 275
293 292 293 292 292 293 293 292 292 292 291 290 289 289 288 288 289 289 288 282 281 281 281 280 280 279 280 279 278 277 277 277 277 277 275 275 275 276 276 278 278 278 278
291 293 293 294 293 293 292 291 291 291 290 288 288 286 285 285 288 288 286 280 280 281 282 281 281 279 282 283 278 277 277 277 279 280 281 281 281 281 280 277 274 274 273
292 293 294 293 292 291 291 291 290 289 288 286 285 284 285 284 286 288 286 279 280 280 280 281 284 281 282 283 278 276 274 276 276 276 276 277 278 278 280 277 276 274 274
295 295 294 293 292 292 291 290 288 286 284 282 282 282 282 283 283 287 288 282 281 280 280 279 280 283 283 283 282 277 275 277 276 276 276 276 276 276 277 277 277 275 274
293 293 292 292 291 289 287 285 284 283 281 281 279 281 281 282 285 285 287 287 283 281 280 281 280 283 284 283 282 282 282 279 273 272 271 272 272 273 275 276 277 277 277
288 287 286 287 287 286 284 283 282 281 279 280 280 280 280 281 281 285 286 286 286 282 282 281 282 283 284 282 283 283 279 274 270 266 271 270 271 274 276 276 277 277 278
285 285 285 284 284 284 283 283 282 279 279 281 281 280 279 280 279 279 281 281 284 284 282 282 281 281 279 279 276 279 276 275 273 271 269 268 270 271 271 273 272 274 274
284 284 284 282 282 282 283 283 282 282 282 281 281 280 278 279 280 282 282 280 281 283 283 280 278 278 277 277 275 276 274 273 271 268 266 268 270 270 270 271 272 271 268
283 283 282 281 281 282 282 282 285 286 285 286 285 284 283 284 285 286 286 286 286 285 280 276 277 276 276 276 275 275 272 271 272 271 266 268 269 267 268 271 271 269 269
282 283 282 281 281 281 281 282 282 284 286 286 286 286 287 286 286 286 286 286 286 285 281 277 277 278 277 276 275 274 273 273 272 271 270 268 267 266 266 268 268 269 268
282 282 280 280 280 280 280 282 283 282 282 282 285 284 285 286 285 286 286 285 283 284 283 280 279 280 278 276 275 274 274 271 268 269 268 267 265 264 264 266 266 263 267
278 278 278 277 278 278 279 279 279 280 281 282 283 281 282 284 285 285 285 282 282 282 282 281 279 278 278 277 276 275 274 270 266 264 268 268 264 265 263 265 263 264 264
275 275 275 276 276 277 277 277 277 278 278 278 279 280 282 277 277 281 274 274 282 282 282 280 280 279 279 278 276 276 273 270 268 269 268 268 265 264 264 262 259 262 267
275 275 273 275 274 274 274 274 275 275 275 275 278 280 280 281 281 280 281 276 278 281 282 281 281 281 280 279 278 276 275 274 274 272 271 270 265 264 265 262 260 264 267
272 272 272 271 272 270 270 272 272 271 272 272 272 273 274 276 277 278 280 280 281 280 280 279 282 282 281 280 279 278 276 276 275 274 272 272 269 268 265 261 260 260 263
268 267 267 268 267 266 267 268 267 268 268 268 269 270 270 271 271 272 272 273 273 272 273 275 275 276 280 281 281 280 278 277 278 277 274 272 271 269 265 261 261 260 260
265 262 264 264 263 263 264 262 263 265 264 265 265 267 268 268 268 268 269 270 269 268 269 270 272 274 274 275 276 282 281 280 280 278 277 274 272 269 267 261 262 260 259
260 257 258 260 257 260 261 260 260 262 261 261 262 263 264 266 266 267 267 268 267 267 266 267 269 271 273 273 274 274 275 280 281 279 278 276 274 271 269 266 262 261 259
260 259 258 258 257 257 258 257 258 259 258 260 260 261 262 263 264 265 266 266 266 265 266 266 266 267 269 272 273 274 274 275 278 280 278 277 274 272 269 268 266 265 263

GFSGL_sfc_thetae_039.txt.gz
Theta_e
322 321 319 316 316 312 308 307 304 303 302 301 302 298 297 299 299 298 298 297 297 298 298 297 297 297 296 296 297 296 294 292 288 289 291 290 289 287 288 288 286 286 286
318 314 315 313 310 308 307 306 304 303 302 301 300 297 297 298 298 297 296 296 296 296 296 296 295 294 295 296 295 294 293 293 289 286 288 287 286 287 286 285 284 284 285
310 310 309 308 308 309 308 307 304 302 301 298 296 296 298 298 297 296 295 297 295 296 296 295 295 295 294 294 294 292 292 290 289 286 285 286 285 286 284 284 284 284 284
308 308 308 306 307 306 303 301 299 299 297 298 297 296 296 295 297 296 296 296 295 295 295 295 295 294 294 293 292 291 290 288 287 285 284 284 284 284 283 281 281 283 282
305 305 304 304 303 301 300 297 297 296 296 295 296 297 296 296 296 295 295 296 295 294 294 294 294 294 292 292 291 290 288 286 285 284 283 283 282 282 280 281 280 281 282
304 302 302 300 299 297 296 295 294 294 296 297 294 295 294 295 291 291 291 294 294 293 293 294 293 291 291 289 287 287 287 286 284 283 283 281 281 281 281 280 280 279 277
302 301 299 297 294 294 295 295 294 295 295 294 294 296 295 294 291 291 290 292 293 293 293 293 292 289 288 289 287 287 285 283 284 285 282 282 281 281 281 280 280 279 279
297 296 297 296 295 295 295 296 294 295 295 295 296 294 293 293 289 289 288 292 292 292 293 293 292 291 290 288 287 287 287 286 285 284 284 284 283 282 282 281 281 281 281
296 296 296 296 296 296 294 294 296 295 296 294 292 292 293 293 288 287 288 291 291 291 291 291 290 289 288 286 285 285 285 285 284 283 283 283 281 281 282 282 280 279 277
296 297 298 298 297 296 296 294 293 292 292 293 293 293 290 291 288 287 288 290 289 289 290 289 286 288 286 285 286 285 283 284 284 283 283 282 282 283 282 283 281 278 278
297 297 296 295 294 293 293 294 294 293 292 291 290 291 291 290 290 287 288 289 289 288 288 288 289 286 286 286 286 286 285 286 283 283 282 282 282 283 283 283 283 281 278
293 291 291 291 291 291 291 291 291 290 289 289 288 289 290 290 288 288 287 287 288 288 288 289 289 286 285 286 286 285 284 282 284 283 282 281 282 282 283 283 283 282 282
289 289 289 289 289 289 289 289 289 289 288 287 287 287 288 289 290 287 286 286 286 287 290 289 286 286 285 284 285 285 284 283 283 282 281 281 282 283 283 282 282 282 281
288 288 288 287 287 288 288 287 287 287 286 286 286 285 286 286 288 289 289 289 286 286 286 288 286 284 285 285 284 285 285 284 283 282 282 283 283 282 281 282 280 280 279
286 285 285 285 284 284 284 284 284 285 285 283 283 284 283 283 284 286 286 286 287 287 285 285 285 285 283 283 284 284 284 284 282 283 282 281 281 281 281 282 280 279 277
282 282 281 281 282 281 281 281 282 282 282 282 282 283 284 282 280 281 282 283 285 285 285 284 284 284 284 282 282 282 283 282 282 282 282 281 281 280 280 280 280 278 277
279 279 280 279 280 279 279 278 278 280 280 280 280 280 279 278 278 279 279 281 283 283 283 284 284 284 284 283 282 282 283 283 283 282 282 281 281 281 279 280 279 278 277
279 277 278 278 278 278 277 277 277 276 275 277 278 277 276 276 277 278 278 279 282 284 284 284 284 285 283 282 282 282 282 283 282 281 281 282 281 280 280 279 279 278 277
277 276 276 277 276 275 275 275 275 274 274 274 275 275 274 273 275 276 276 276 274 274 275 278 284 285 284 284 283 283 283 283 282 281 281 281 280 280 279 280 279 275 275
275 273 273 274 274 273 272 272 272 272 272 271 271 271 271 270 271 272 273 273 273 273 273 274 275 276 284 284 284 284 283 283 282 281 280 280 280 279 279 279 279 278 277
274 272 270 272 271 270 270 270 269 269 269 269 269 269 266 267 269 269 270 270 270 271 271 271 272 273 275 277 278 282 283 282 282 281 279 279 280 278 279 280 279 277 277
270 270 270 269 269 268 267 267 267 266 267 266 266 267 265 267 267 267 268 268 269 270 271 270 270 271 272 273 274 277 278 281 282 281 280 279 279 279 279 279 278 278 277
268 268 268 268 267 265 265 265 264 265 265 265 264 264 265 265 265 266 266 267 268 268 269 269 269 269 270 271 272 273 274 277 278 282 280 279 279 279 279 279 278 277 277
267 266 266 266 264 264 263 263 263 262 262 263 263 263 263 263 264 264 265 265 266 266 267 267 267 268 269 269 270 271 273 276 277 277 281 280 279 278 279 279 278 277 276
266 265 264 264 263 262 262 262 261 261 261 261 261 262 262 262 263 263 264 264 264 264 264 265 266 267 268 268 268 269 272 272 273 275 278 281 280 279 279 278 278 276 276
266 265 264 263 263 262 261 260 260 260 259 260 260 260 260 261 261 262 262 262 263 262 262 264 265 265 266 268 269 270 269 269 271 274 276 280 280 280 279 278 277 276 274

GFSGL_sfc_thetae_042.txt.gz
Theta_e
331 330 325 325 325 324 323 320 316 313 308 305 304 305 303 300 299 299 301 300 301 299 301 299 299 300 299 299 298 298 296 295 291 294 294 295 294 293 292 293 292 291 290
331 331 328 325 322 320 317 316 313 309 304 306 306 304 300 302 300 299 299 299 300 299 299 299 298 298 298 299 297 297 296 296 293 290 293 292 293 292 291 290 289 289 289
327 325 324 320 316 314 312 310 307 305 306 305 304 300 300 301 299 299 299 298 299 300 299 299 298 298 297 297 297 296 295 294 294 291 290 292 291 291 290 290 289 288 288
320 319 318 317 317 317 314 311 308 306 304 300 300 300 299 298 298 298 298 298 297 299 299 299 299 298 298 297 296 296 294 293 293 291 290 289 289 290 289 286 285 287 286
317 316 315 314 313 311 309 309 307 308 303 299 298 297 299 298 298 299 298 295 297 298 299 299 299 298 295 295 295 295 294 292 291 289 288 287 287 287 286 286 284 285 286
313 311 310 308 306 305 303 302 298 297 297 297 298 297 297 298 293 292 292 294 297 296 296 297 298 296 294 291 290 290 291 292 290 289 287 286 286 286 287 285 284 283 281
309 307 305 304 301 300 298 297 296 298 296 297 297 299 298 298 292 292 291 295 295 296 296 296 295 295 294 296 290 288 287 286 286 290 287 287 286 287 287 284 283 283 283
305 303 303 302 300 300 299 299 297 298 297 298 298 298 300 298 291 291 289 294 295 295 295 295 295 295 296 295 294 293 292 292 290 288 288 289 289 288 286 285 284 284 285
302 302 302 302 301 301 300 300 301 301 300 299 297 294 293 293 292 289 289 294 293 293 294 294 294 294 292 291 292 291 291 290 290 288 287 286 284 282 283 284 283 282 281
301 301 302 302 301 300 300 297 294 294 294 295 297 297 294 296 292 289 290 293 292 292 293 293 289 291 289 288 291 290 289 289 290 289 287 285 284 286 282 284 284 281 281
301 300 299 297 294 296 297 297 297 297 296 295 294 295 295 294 294 290 289 291 292 292 292 292 293 288 287 287 287 289 289 291 289 287 287 287 287 286 286 286 286 284 282
296 294 295 294 293 293 294 294 294 294 293 292 293 293 294 294 291 290 289 288 288 289 290 293 293 289 288 287 287 286 286 286 288 288 285 285 285 285 286 286 286 286 286
293 293 293 293 293 293 293 293 293 292 291 290 289 289 289 290 290 287 287 287 287 289 290 289 287 287 287 286 285 285 284 287 286 285 285 284 285 286 287 286 286 286 285
292 292 292 290 291 290 290 289 288 288 287 286 285 285 286 287 287 285 284 285 284 286 286 288 287 286 286 287 286 286 286 287 286 286 286 286 287 286 285 285 283 284 282
290 289 288 287 286 287 286 286 285 286 283 283 284 284 283 283 281 280 281 282 282 283 283 286 285 286 286 286 287 286 286 287 286 287 285 285 285 284 284 284 283 283 281
286 285 284 285 286 285 285 285 281 281 280 280 280 280 282 280 278 278 279 279 280 281 284 284 285 286 286 287 286 285 285 284 285 286 286 285 284 283 283 283 283 282 281
283 283 283 283 283 283 283 282 281 283 280 279 279 278 277 276 276 277 278 278 280 280 279 281 284 286 286 286 287 286 284 285 285 284 285 285 284 284 283 282 282 281 281
281 279 283 283 282 282 281 281 281 279 278 279 279 277 276 275 275 276 276 278 278 279 279 278 279 281 281 284 286 285 285 286 284 285 285 285 285 283 283 281 281 281 281
281 280 281 281 280 278 279 279 279 278 277 277 278 277 276 273 274 275 275 277 275 275 276 276 277 277 279 279 281 286 286 285 285 285 284 284 284 283 283 282 282 281 280
278 275 277 279 278 278 277 277 276 276 275 276 275 274 274 272 274 274 275 275 274 274 274 274 275 276 276 276 278 280 283 285 284 284 284 284 284 284 283 282 282 280 280
279 277 273 278 276 275 275 275 274 274 274 274 273 273 268 269 272 273 273 273 272 272 272 273 273 273 275 275 275 276 277 279 284 284 284 283 284 283 283 283 282 281 280
276 275 276 275 275 274 272 273 273 272 272 272 272 272 269 272 272 271 272 271 271 272 272 272 272 272 273 273 273 273 274 276 279 280 283 283 282 283 283 282 281 281 280
274 274 274 273 272 269 272 271 271 270 270 270 270 270 270 270 270 270 270 270 270 270 271 270 270 270 272 272 273 273 272 274 276 277 278 280 282 282 282 281 281 280 280
273 272 271 272 270 270 270 269 269 268 268 269 269 269 269 269 268 268 269 269 269 269 269 269 268 269 270 270 272 272 273 274 275 275 276 277 280 282 282 281 281 280 280
272 272 271 270 270 269 268 268 268 268 267 267 268 268 268 268 268 268 268 268 267 267 267 267 268 269 268 268 269 270 272 272 271 272 274 278 278 282 282 282 282 281 280
271 270 270 269 269 268 267 267 266 266 266 266 266 266 266 266 267 267 266 266 266 265 265 267 267 267 267 268 270 271 270 269 270 271 273 275 277 281 282 282 282 281 280

GFSGL_sfc_thetae_048.txt.gz
Theta_e
330 330 328 327 326 327 325 323 324 320 314 310 309 308 306 305 304 302 300 299 299 298 300 299 299 300 299 297 297 295 294 293 289 289 292 291 291 292 292 292 293 290 289
329 329 329 328 327 323 322 321 319 313 311 309 309 307 305 304 303 300 297 297 300 298 298 299 299 300 297 298 295 294 293 293 290 287 288 289 289 290 290 289 291 291 288
331 329 328 326 323 321 318 315 315 313 312 308 306 304 304 302 300 298 299 299 298 298 298 298 298 298 297 297 297 294 294 295 292 288 287 289 288 289 288 288 288 287 290
329 327 322 319 317 314 312 309 308 306 304 303 304 303 300 299 299 299 298 297 297 297 298 298 298 298 297 297 295 293 294 293 293 290 289 287 287 288 287 285 283 285 284
325 321 318 317 317 314 312 311 308 307 305 301 300 299 299 298 298 298 297 296 296 295 297 297 297 297 297 296 296 292 291 291 290 288 286 285 284 284 284 284 283 283 283
319 317 317 316 315 314 312 309 307 304 301 300 298 297 295 298 294 295 295 296 297 295 294 296 296 296 296 293 292 292 292 290 289 288 288 287 284 284 284 284 282 280 278
315 313 311 309 306 305 303 302 301 299 299 297 297 297 297 298 293 293 292 294 294 294 294 294 295 295 292 292 291 291 289 290 290 290 287 287 287 287 285 284 283 281 279
309 308 306 305 302 302 301 300 299 299 298 297 297 299 299 295 292 292 291 293 293 293 293 292 290 290 291 291 289 287 288 290 290 290 288 288 289 289 286 286 285 283 280
306 305 305 304 303 302 300 300 300 300 299 298 298 297 295 296 291 291 291 292 291 290 292 291 291 290 290 290 288 287 288 288 291 291 291 291 290 289 287 283 280 280 277
305 305 305 304 303 301 300 300 299 298 298 298 298 297 293 293 291 289 289 287 286 284 286 288 288 288 288 288 285 285 284 285 287 287 287 287 286 286 286 285 282 281 280
305 304 303 302 301 300 299 299 298 296 296 292 291 292 293 289 287 287 286 283 280 281 282 282 283 286 285 285 284 282 282 285 285 286 286 286 286 288 287 284 284 283 280
302 300 300 300 298 297 295 294 293 293 291 289 288 287 288 286 285 285 284 283 283 280 280 281 281 284 284 283 283 284 285 284 285 284 284 285 285 287 287 286 284 283 283
300 297 294 294 295 295 293 292 291 290 287 285 284 284 284 284 284 283 282 281 281 279 280 281 281 282 283 282 284 284 282 282 282 282 282 283 285 287 287 287 286 286 285
294 293 293 292 291 291 290 289 288 285 284 283 283 282 281 282 279 278 278 278 279 279 279 278 278 280 281 282 283 284 284 283 283 283 284 285 284 283 285 285 283 283 283
294 292 290 289 288 287 284 285 282 281 281 281 280 280 278 277 276 277 277 276 276 277 276 276 278 278 278 278 278 279 281 280 280 284 284 284 282 280 285 285 283 283 281
289 288 287 286 286 286 284 282 283 281 281 280 280 278 279 278 277 277 277 278 278 279 276 275 274 273 274 275 276 276 277 277 278 278 284 283 282 283 283 284 284 281 280
285 286 285 285 284 283 283 283 278 280 281 281 280 279 278 276 276 276 277 278 278 279 273 273 271 272 273 274 275 275 274 276 276 277 281 281 281 280 280 282 282 282 281
283 284 284 284 283 283 282 282 282 280 279 278 279 279 277 276 276 276 277 277 275 275 274 273 272 272 273 273 273 273 274 274 274 275 276 280 277 279 277 281 281 281 280
282 282 282 281 279 279 280 280 280 279 279 278 279 278 276 275 275 277 278 273 272 272 273 272 271 271 271 272 271 272 272 273 273 273 274 276 280 281 278 279 280 281 280
278 279 280 280 279 279 279 278 278 278 277 277 276 276 274 272 269 271 271 270 269 271 270 270 271 270 270 270 270 270 271 271 271 272 273 274 275 278 278 276 279 282 280
278 276 277 278 277 277 277 277 276 276 275 275 274 273 270 270 269 271 271 269 270 270 268 270 269 269 269 269 270 268 269 269 270 271 271 272 272 272 275 278 279 282 281
277 276 277 276 276 276 274 275 275 274 274 273 273 273 271 270 271 270 270 269 267 268 270 268 268 268 269 269 267 267 268 267 268 269 269 270 271 271 272 274 277 281 281
276 276 275 275 274 272 273 274 273 273 272 271 271 271 271 270 269 269 268 265 267 267 267 267 267 267 267 266 268 268 267 267 268 268 268 269 269 269 270 271 274 277 280
274 274 273 273 274 271 272 272 271 271 271 271 270 270 270 269 268 266 265 265 265 264 264 267 266 264 266 267 267 268 268 268 269 269 268 266 267 268 270 271 271 274 280
274 273 273 272 272 272 271 271 271 270 270 269 269 269 268 268 267 266 264 265 264 264 265 263 264 266 266 265 265 266 268 269 267 267 267 267 267 267 268 270 272 275 278
273 273 272 271 271 271 270 269 269 269 268 268 267 266 266 266 266 263 265 263 265 263 262 263 264 264 264 265 267 268 267 267 267 268 269 269 267 268 269 271 272 274 278

GFSGL_sfc_thetae_051.txt.gz
Theta_e
323 324 325 322 320 322 322 321 320 317 314 313 310 309 307 305 304 302 301 300 300 299 299 299 299 300 299 299 296 293 292 290 286 288 289 290 289 289 291 292 292 292 291
324 324 324 323 322 321 320 320 319 316 312 310 309 308 305 304 303 301 299 299 299 298 298 299 299 300 297 295 294 293 291 293 290 289 287 288 288 289 288 287 291 292 289
325 326 324 323 323 320 319 317 315 311 310 309 308 306 304 303 302 300 298 299 299 298 298 298 298 297 295 297 297 296 296 296 293 291 291 288 290 288 288 287 287 287 288
326 324 319 318 316 315 313 311 310 311 307 306 305 304 303 301 299 299 299 298 298 298 298 297 297 296 296 295 294 293 292 289 289 291 290 290 287 290 288 287 285 285 284
322 318 315 314 313 312 310 308 307 306 304 303 302 300 299 299 299 298 298 297 296 295 296 297 296 297 296 294 294 293 288 288 288 287 287 284 284 285 285 287 285 283 284
316 315 315 314 313 311 308 307 305 302 301 299 298 298 297 298 294 294 296 295 295 295 293 295 295 295 294 293 293 292 291 287 285 284 286 286 287 282 283 283 283 282 282
314 314 313 310 308 308 307 304 299 296 295 294 293 294 294 295 293 293 292 294 294 294 293 292 292 295 291 289 288 288 287 289 288 285 284 285 286 286 283 284 285 285 284
306 306 306 303 301 301 300 298 296 295 293 293 293 294 294 294 292 292 291 293 290 290 290 290 287 286 287 288 286 284 285 287 287 288 285 286 287 288 287 288 287 286 284
304 303 301 300 299 298 297 295 296 295 294 294 294 293 294 294 292 291 290 289 288 286 288 286 286 285 288 287 283 280 280 281 286 289 289 289 288 288 288 286 282 283 281
302 301 301 301 299 298 297 296 295 297 297 295 294 294 290 287 288 289 287 282 281 280 282 284 285 284 285 285 280 279 278 278 279 280 282 284 286 286 288 287 285 281 281
302 302 300 299 298 298 297 296 295 294 293 289 288 288 286 285 285 285 284 280 279 279 279 279 279 283 283 283 283 281 280 282 282 281 283 283 284 285 287 285 285 285 283
299 298 298 298 298 297 295 293 292 290 287 285 284 283 282 282 283 283 282 281 281 278 278 278 278 281 281 282 282 284 284 283 282 281 280 281 282 283 284 287 285 284 285
298 297 297 295 294 292 289 288 288 287 283 282 282 281 279 279 278 280 280 279 279 277 278 278 279 280 281 280 282 281 280 280 280 278 278 280 283 283 286 286 285 285 284
292 290 290 289 289 287 288 286 283 280 280 281 280 279 279 276 276 276 277 276 278 278 277 276 277 278 277 277 277 278 278 277 277 276 276 277 282 285 285 285 284 283 282
291 289 287 286 283 282 283 281 279 280 281 279 279 280 277 275 276 277 277 277 274 277 275 273 274 275 275 275 275 275 275 275 274 274 274 276 277 284 283 282 282 283 281
286 285 283 282 282 281 280 279 282 281 282 281 281 279 278 278 277 277 277 278 278 279 274 271 268 266 271 273 272 272 272 272 273 273 273 274 275 279 282 283 284 282 280
283 284 283 282 282 282 280 279 277 280 281 281 280 280 279 277 277 277 277 278 278 277 271 271 266 265 268 272 271 270 270 271 272 272 272 273 274 275 280 282 281 282 281
283 283 282 281 281 280 280 280 279 278 277 277 279 279 278 276 276 277 277 277 274 274 273 271 268 268 270 270 270 269 269 270 270 270 270 272 272 273 273 280 281 280 280
281 280 279 278 279 279 279 279 279 278 278 277 277 276 275 275 275 275 276 271 269 270 271 271 268 267 268 268 264 263 263 267 267 266 268 270 271 271 271 273 278 279 280
279 279 279 279 278 278 278 277 277 277 276 276 275 274 273 271 267 265 267 265 265 268 267 268 268 267 264 264 260 261 265 265 267 266 267 267 269 270 270 271 273 278 278
277 277 277 277 276 276 276 276 276 275 274 274 273 270 270 270 269 269 270 266 266 267 263 265 263 260 259 260 267 264 264 265 265 266 266 266 267 268 270 270 270 272 274
276 276 276 275 276 274 273 274 274 273 273 272 272 271 271 267 268 269 267 264 263 264 264 262 261 262 263 264 264 260 264 264 265 265 264 265 266 267 267 268 269 270 272
275 274 275 274 273 272 272 273 272 271 270 269 270 270 269 267 266 266 264 261 262 261 259 259 257 261 261 259 261 266 264 264 265 265 265 265 264 264 265 266 267 269 270
274 273 273 272 271 270 270 269 269 270 269 268 266 266 266 265 261 261 261 258 258 255 254 256 258 259 262 264 261 263 265 266 267 267 264 265 264 265 265 265 266 268 269
272 271 271 271 270 269 268 269 268 266 266 265 263 263 263 262 262 258 256 256 256 255 257 256 257 260 260 260 261 263 265 267 266 266 266 266 265 264 265 266 266 268 270
272 271 270 270 268 266 264 262 261 261 261 260 259 257 257 258 258 254 255 256 259 256 255 255 257 258 259 262 264 265 266 266 266 267 267 266 265 265 266 266 267 268 269

GFSGL_sfc_thetae_054.txt.gz
Theta_e
321 320 320 321 322 320 321 320 320 319 317 315 315 311 308 305 304 304 303 302 301 300 300 299 299 300 299 299 298 296 294 292 290 290 288 289 288 289 291 291 293 292 292
322 322 322 323 322 322 320 320 321 318 316 315 312 309 307 305 303 302 301 301 300 298 298 299 299 300 298 297 296 293 291 291 289 289 288 287 287 289 289 288 291 292 292
324 323 322 321 321 322 321 321 318 315 313 312 310 308 306 304 302 301 300 299 299 299 299 298 298 298 296 295 294 293 294 295 294 292 290 290 288 289 289 289 289 289 292
323 321 321 320 321 323 321 318 316 315 311 310 310 306 304 302 301 299 299 299 299 299 298 298 298 297 294 293 292 290 291 288 288 288 289 289 286 287 286 286 286 285 286
319 318 318 321 320 319 319 315 312 311 309 306 303 302 301 300 299 299 298 298 298 297 297 297 297 297 296 294 292 289 287 286 286 286 285 285 283 282 283 284 283 286 285
320 320 318 315 314 313 311 308 307 304 305 302 300 299 298 299 294 294 297 296 296 295 294 295 295 295 294 290 289 289 287 283 282 281 281 282 284 283 283 284 284 280 283
318 316 314 313 310 308 308 305 302 301 301 298 298 298 297 298 293 293 292 295 294 293 292 293 292 291 288 286 287 286 285 287 287 283 281 282 282 283 285 284 282 283 283
313 312 311 310 308 306 303 300 298 299 296 295 295 295 295 294 292 292 290 291 290 289 288 287 285 284 285 284 282 280 280 281 281 282 282 283 284 285 285 285 284 285 287
305 306 306 304 303 302 300 298 295 293 293 292 292 292 291 291 291 290 291 289 286 285 285 284 284 282 284 285 281 279 279 280 284 285 285 285 285 286 286 284 282 281 280
303 302 301 301 300 297 296 294 293 293 293 293 293 293 291 291 289 290 287 283 280 279 281 281 283 282 283 282 279 278 278 279 280 282 282 282 283 283 286 284 283 281 281
300 299 298 298 296 295 295 295 295 294 293 288 286 285 284 285 285 286 284 280 279 279 279 279 280 281 281 282 283 280 280 280 281 280 280 280 281 282 283 283 284 283 282
299 298 297 297 297 296 295 293 293 290 286 284 281 280 280 281 283 283 283 281 280 279 278 279 279 280 281 282 281 280 280 279 277 277 276 277 277 277 279 283 284 285 286
297 297 296 296 295 294 292 289 288 287 284 282 281 279 278 278 278 280 280 280 279 278 279 278 279 280 280 280 279 279 277 276 274 273 274 274 275 278 278 282 284 286 286
295 294 292 291 287 286 286 286 284 282 282 282 281 279 277 276 276 277 277 277 278 278 278 277 277 278 277 277 277 277 276 275 273 273 273 274 275 275 276 280 283 284 283
290 288 284 284 283 281 280 280 281 281 282 281 280 280 277 276 277 278 277 277 277 278 275 274 274 274 274 274 274 274 273 273 272 272 272 271 272 273 274 276 281 282 280
285 283 281 281 281 279 278 279 282 283 283 282 281 279 279 279 278 278 277 278 279 279 275 273 270 269 270 272 271 271 270 270 271 271 269 270 270 271 272 275 275 282 280
283 283 282 281 280 280 280 279 277 280 281 281 281 280 278 278 278 277 277 278 278 277 273 271 268 267 268 270 270 269 268 269 270 269 268 267 269 270 270 271 273 276 280
282 282 281 280 280 281 280 279 279 278 277 277 279 278 278 277 277 277 278 277 274 274 273 271 270 270 270 269 269 268 268 266 266 267 265 266 267 267 268 269 271 271 276
280 280 280 279 279 279 279 279 279 278 278 278 277 277 277 276 275 275 275 272 271 271 271 270 270 269 268 268 264 262 258 260 262 259 262 266 263 265 266 269 269 270 271
279 279 279 278 278 278 278 277 277 277 276 276 276 273 273 272 269 269 269 268 269 269 269 269 268 267 265 264 260 259 259 256 261 261 263 259 261 264 265 267 268 268 269
277 277 277 277 276 276 276 275 275 274 274 273 272 271 272 271 270 270 270 268 268 268 266 267 265 262 259 259 262 259 258 260 263 262 263 263 262 263 265 265 266 268 269
276 276 276 275 275 273 273 274 273 273 273 272 271 271 271 270 270 270 269 267 265 267 266 264 263 262 261 261 260 255 260 257 258 261 263 263 264 264 263 264 265 266 268
274 274 274 274 273 272 272 272 271 271 270 270 270 270 269 268 267 267 266 264 265 261 259 259 256 258 258 255 256 260 261 262 263 264 263 263 264 263 263 263 264 265 266
273 272 272 271 271 271 270 269 270 270 269 268 267 267 266 265 263 263 261 259 258 254 253 252 254 257 258 256 254 257 263 264 265 265 264 264 263 264 264 263 264 264 265
272 271 270 270 269 268 268 268 267 266 265 264 263 261 262 261 260 255 253 253 254 251 253 254 254 256 257 257 258 259 261 264 264 264 264 264 264 264 264 264 264 264 265
270 269 268 268 266 266 265 264 262 261 259 258 257 255 255 255 255 250 251 253 253 253 254 254 255 256 257 259 260 263 263 261 262 263 264 264 263 263 264 264 264 264 265

GFSGL_sfc_thetae_057.txt.gz
Theta_e
312 311 311 312 314 315 316 318 319 318 318 318 317 315 314 310 307 304 303 303 303 301 301 301 300 300 300 299 298 297 295 294 290 291 290 289 288 289 290 290 292 291 293
314 314 314 315 316 317 318 320 320 319 319 319 319 315 311 310 308 306 303 303 302 301 300 300 299 300 299 298 296 295 294 293 289 286 288 287 286 288 289 288 291 292 290
317 317 318 319 318 318 319 321 321 321 320 317 315 312 310 309 306 306 304 303 301 300 300 299 299 299 297 296 295 294 294 293 289 287 288 287 287 287 287 288 288 288 290
318 318 318 319 319 319 320 321 321 322 318 314 312 310 308 307 306 304 302 300 299 299 299 299 299 298 296 295 294 292 289 286 285 284 284 284 284 286 285 284 285 285 286
318 318 318 320 320 320 320 321 320 317 314 312 310 307 305 304 302 300 300 299 298 297 298 298 298 297 296 294 293 289 284 283 282 281 280 281 281 280 281 282 283 285 286
319 319 320 319 319 319 320 317 314 311 310 307 305 303 302 301 294 295 298 298 298 297 295 296 296 295 290 289 289 288 285 281 279 279 279 279 279 280 280 281 283 282 280
319 318 317 318 318 316 312 309 308 307 305 302 301 300 300 300 293 294 293 297 296 295 294 293 291 289 288 286 285 284 283 284 285 280 277 278 278 279 281 281 280 279 279
316 316 316 314 312 309 308 305 301 302 301 300 300 300 298 296 292 292 291 294 292 291 290 289 286 285 285 282 280 279 279 280 280 281 279 279 280 281 281 281 281 282 282
313 312 312 310 308 306 303 301 300 299 298 298 298 297 295 294 291 290 290 289 287 284 284 283 282 281 283 283 280 279 279 281 283 284 285 285 285 285 285 283 281 280 278
309 308 307 307 305 302 300 298 297 297 295 294 292 293 291 291 290 290 288 284 281 280 281 280 283 281 282 282 280 279 278 278 279 279 281 281 282 282 284 283 281 279 279
304 303 303 303 301 300 297 296 296 295 291 286 283 284 285 287 288 288 286 283 280 279 279 278 278 280 281 282 282 279 278 278 277 277 277 277 278 278 279 279 279 280 279
298 298 298 298 297 296 295 294 293 289 285 283 281 281 282 282 284 284 283 282 281 280 279 278 278 280 281 281 279 279 279 277 274 274 274 274 274 275 276 277 278 279 281
296 296 296 295 295 294 292 289 287 286 283 283 281 279 278 279 280 281 281 280 279 279 279 279 279 280 280 279 278 278 276 275 273 271 272 272 273 274 276 276 277 278 281
294 294 293 288 286 287 287 287 286 285 284 282 280 277 276 276 276 277 277 278 278 278 278 278 278 279 278 277 277 276 275 274 272 271 271 272 272 272 273 274 273 275 276
291 288 285 284 282 281 282 283 282 283 284 282 280 278 276 275 277 278 278 277 277 278 277 276 274 274 273 274 274 273 273 272 271 271 270 270 269 270 271 272 272 273 273
285 284 283 282 282 281 279 279 283 283 283 283 282 280 279 279 279 279 279 278 279 279 276 272 270 270 271 271 270 270 270 270 269 269 269 268 267 268 269 270 271 271 272
283 282 281 281 280 280 280 279 277 280 281 281 280 280 279 279 278 278 278 278 278 276 273 271 269 268 269 270 270 269 268 269 268 267 267 266 266 267 265 267 268 270 270
282 282 281 281 280 280 279 279 279 278 276 277 279 279 279 278 278 278 278 277 274 274 273 271 270 270 270 269 269 268 268 266 265 265 265 262 263 263 263 264 266 267 268
281 280 280 280 280 280 280 280 279 279 278 277 277 277 277 277 276 276 276 273 272 272 271 271 270 269 268 268 266 264 263 262 261 256 259 258 257 262 262 263 265 265 267
279 279 279 278 278 278 278 277 277 277 277 276 276 274 273 272 270 270 270 269 270 270 270 269 269 268 266 266 263 260 260 258 257 258 255 254 255 258 261 263 263 263 266
277 277 277 276 275 275 275 275 275 274 274 273 272 272 272 271 270 270 270 269 269 269 268 268 267 265 264 263 263 260 258 255 257 258 259 261 255 260 263 263 262 263 265
276 275 274 273 273 273 273 274 273 273 272 271 271 271 271 270 270 270 269 267 266 267 267 265 264 263 263 262 260 253 253 253 254 257 259 261 262 263 262 262 262 262 263
274 273 272 272 272 271 271 271 270 270 270 269 270 269 268 267 267 266 265 264 265 263 262 261 257 260 259 253 253 255 256 259 261 262 262 261 262 262 262 262 262 262 262
272 271 271 270 270 269 268 268 268 268 268 267 266 266 265 263 261 261 259 258 257 255 254 253 255 255 257 254 252 255 258 261 263 263 261 261 261 262 262 262 263 262 262
270 269 268 267 266 266 266 265 264 263 263 261 259 258 260 259 259 254 252 253 255 251 253 253 253 255 255 255 255 256 258 261 259 259 261 261 261 261 262 262 262 263 263
267 266 265 265 263 262 260 258 257 257 256 256 254 253 255 256 255 250 251 252 251 252 252 253 254 255 255 256 258 260 259 258 258 260 261 260 260 261 262 262 262 263 263

GFSGL_sfc_thetae_063.txt.gz
Theta_e
316 316 316 316 316 317 318 318 319 319 319 319 320 320 320 320 321 321 319 318 316 317 313 312 312 311 308 307 307 307 306 301 299 298 299 298 298 297 299 302 301 301 301
316 316 316 316 316 315 315 316 319 319 319 319 320 319 317 318 319 316 316 314 311 310 308 308 309 306 305 306 303 300 303 299 296 295 296 296 296 300 300 299 298 297 298
315 315 316 316 316 315 315 316 318 317 318 319 320 320 319 318 318 317 316 313 312 312 309 307 307 306 304 301 300 298 299 298 300 295 296 297 295 298 297 296 295 295 293
315 314 314 314 315 316 317 317 317 317 317 319 320 320 320 320 319 316 313 311 309 309 308 307 305 304 301 300 299 296 299 294 293 295 290 291 293 295 293 291 289 289 289
315 315 315 316 316 316 316 317 317 317 318 318 319 320 321 320 318 316 314 313 309 305 304 304 302 302 298 298 297 293 293 291 288 287 287 288 289 290 288 288 286 287 289
316 315 316 317 316 316 317 317 317 318 318 320 319 320 318 315 302 302 308 308 306 303 300 300 299 297 294 292 292 291 293 288 286 286 286 285 286 286 286 286 285 284 284
317 317 317 317 317 317 317 318 318 319 320 319 318 318 317 314 299 299 298 305 302 300 298 296 294 291 290 288 287 286 285 285 286 287 284 283 283 286 286 285 284 284 284
317 317 318 318 317 318 319 319 320 320 318 317 316 312 312 306 297 294 293 300 297 297 296 293 289 288 287 285 283 282 282 283 283 283 284 285 286 286 286 285 285 284 285
317 317 318 318 318 318 318 319 312 310 306 304 304 303 301 296 292 292 294 292 289 288 288 288 287 285 285 286 283 282 281 282 283 282 282 282 282 282 282 283 282 281 281
317 318 319 319 318 315 308 305 302 303 298 297 296 297 293 292 290 291 291 288 285 284 284 284 284 284 284 283 282 282 280 281 280 280 281 280 280 281 279 281 281 279 280
313 314 313 314 311 307 302 300 298 294 291 288 287 289 290 291 290 289 289 288 285 283 281 281 282 283 284 283 283 282 281 281 278 279 279 279 279 279 279 279 279 279 278
308 306 304 303 301 301 299 296 292 290 287 286 284 283 284 286 287 287 287 286 285 282 280 280 282 283 283 281 281 279 278 278 278 278 277 276 276 276 276 277 277 278 279
301 298 297 297 298 296 292 290 288 287 286 284 283 281 281 282 283 285 284 283 282 280 281 282 283 282 281 280 279 277 277 277 276 276 275 275 275 276 276 276 277 278 278
296 295 294 292 290 290 290 289 288 286 285 284 282 280 279 279 279 279 280 280 280 280 281 282 281 280 279 279 278 277 277 276 276 275 274 275 275 275 273 274 274 275 274
292 290 288 287 285 284 284 285 285 286 287 285 283 281 280 278 278 280 279 279 279 279 280 279 278 277 277 277 276 276 276 275 275 274 273 272 272 272 272 273 273 273 272
288 288 287 286 285 283 282 281 283 283 283 283 282 281 280 281 281 281 281 280 279 279 278 276 275 276 276 276 275 275 275 273 273 272 271 271 270 271 270 271 272 271 271
285 285 285 284 284 282 281 280 278 281 283 282 282 281 281 281 281 281 281 280 278 278 276 275 274 275 275 274 274 273 272 272 271 270 270 270 270 269 268 269 269 270 270
282 282 282 281 280 280 280 279 279 278 277 278 280 281 281 280 280 280 279 278 277 277 276 275 274 274 274 273 272 271 271 271 270 269 269 269 268 268 267 268 268 268 269
281 280 280 280 280 280 280 279 279 279 278 277 278 278 279 279 278 278 277 277 276 275 275 274 274 274 273 272 271 270 269 269 268 267 267 267 267 267 266 267 267 266 266
277 278 278 278 278 278 279 279 279 278 277 276 275 275 276 276 275 274 275 275 274 274 273 273 272 271 271 270 270 269 268 268 268 267 267 267 267 267 266 266 267 267 267
276 276 276 276 276 276 276 276 276 275 274 274 273 273 273 274 273 273 272 272 271 271 270 270 270 269 269 268 268 267 266 266 266 265 265 266 265 265 266 266 267 267 267
276 275 275 274 274 274 274 273 273 273 272 271 271 270 270 271 271 270 269 269 269 269 269 268 267 267 267 266 265 265 264 264 264 264 264 264 265 265 266 266 266 266 266
274 273 272 272 271 271 271 271 271 271 270 270 270 269 269 268 268 267 266 266 266 266 265 265 265 264 265 264 264 263 262 263 263 264 263 264 264 264 265 265 265 265 266
272 271 270 269 269 269 268 268 268 267 267 267 268 267 266 265 265 264 264 264 264 264 264 263 262 261 261 261 263 263 263 263 263 263 263 263 263 263 264 264 265 265 265
269 268 267 266 266 266 266 265 265 265 264 265 264 264 264 264 264 263 263 263 262 262 261 261 261 261 261 259 259 260 260 260 261 261 262 262 262 262 262 263 263 264 265
266 265 265 265 264 264 263 263 262 262 262 262 262 262 262 262 262 262 261 261 260 260 260 261 260 259 259 260 260 259 258 258 258 259 260 262 262 262 263 263 263 264 264

GFSGL_sfc_thetae_066.txt.gz
Theta_e
322 322 322 323 325 325 324 324 324 324 324 323 323 323 323 323 324 325 324 324 324 325 323 320 319 318 317 316 314 314 312 311 307 309 308 308 304 302 301 304 305 304 306
322 322 322 323 323 323 323 324 325 325 325 324 324 322 322 323 324 324 324 323 322 319 318 316 314 313 310 311 311 308 308 309 311 305 303 300 299 303 305 305 302 302 302
321 321 322 322 322 322 322 322 323 323 324 324 323 323 323 323 323 324 323 320 317 316 316 314 312 311 310 309 307 306 306 306 302 298 302 299 300 298 297 299 299 300 299
320 320 320 322 322 323 322 322 323 323 322 323 324 323 324 323 323 323 322 318 317 315 314 314 313 311 309 307 303 303 300 297 299 296 294 293 294 296 295 294 295 297 294
321 320 321 322 322 322 322 322 323 323 322 322 322 323 324 323 322 323 322 321 319 317 315 314 312 308 303 304 302 299 298 296 294 294 292 289 290 291 291 293 292 292 293
321 321 321 321 321 321 322 322 322 322 321 321 322 322 323 321 307 301 310 321 319 316 313 310 307 300 298 295 295 295 296 294 291 288 288 287 289 292 292 290 290 288 287
321 322 322 322 321 321 321 320 320 321 321 322 322 321 321 322 300 300 300 317 315 312 307 303 299 299 296 295 290 289 288 288 290 292 288 290 290 290 290 289 288 288 288
322 321 321 321 321 322 321 320 321 322 321 322 321 321 322 322 300 300 299 310 306 303 301 299 297 293 292 290 288 286 285 284 284 284 286 287 287 288 289 289 288 287 287
321 322 322 322 321 321 321 322 323 323 322 322 321 320 318 308 294 293 297 298 294 292 292 293 291 287 287 288 284 283 283 282 284 283 283 283 283 282 283 285 284 283 283
321 322 323 323 323 322 323 322 322 322 314 304 299 300 295 296 291 292 295 291 287 286 286 287 287 286 285 285 284 283 281 281 280 280 281 281 281 283 280 282 283 281 282
320 322 322 323 323 323 322 315 306 298 295 292 290 290 292 292 290 290 290 288 285 284 283 283 284 285 285 284 284 284 282 282 280 281 281 283 284 283 283 283 282 282 281
318 318 317 315 308 308 303 299 297 294 289 287 286 285 286 287 288 288 288 286 286 284 282 282 283 284 283 282 281 280 280 281 281 281 281 280 280 281 281 281 281 281 282
302 301 299 297 297 297 296 293 291 290 288 286 285 283 282 283 284 285 284 284 283 282 282 283 283 282 281 280 279 279 279 280 280 280 279 279 280 280 280 280 280 280 281
296 294 294 292 291 292 291 290 289 287 286 285 283 281 280 280 280 281 281 281 282 282 282 282 281 281 281 279 278 279 280 279 279 279 278 279 279 278 278 278 277 277 277
292 290 288 287 286 284 284 286 286 287 287 285 283 282 279 278 279 281 281 280 280 280 281 281 280 280 280 280 280 279 280 279 279 279 277 277 276 277 277 277 276 276 274
288 288 286 286 285 284 282 281 284 284 283 283 282 281 281 281 282 282 282 281 281 281 281 281 281 281 281 280 280 279 279 276 278 276 276 275 274 275 275 275 274 275 274
284 284 284 284 284 282 281 280 278 281 283 283 283 283 283 282 282 281 281 280 279 281 281 280 280 279 278 278 277 277 276 276 274 275 274 274 273 273 273 273 273 273 273
282 282 282 281 281 280 280 279 279 278 277 278 281 281 282 281 281 280 280 280 279 279 279 278 277 277 276 276 276 275 275 275 274 273 272 272 272 272 272 272 272 272 272
281 281 281 281 280 280 280 280 279 278 277 277 278 278 279 279 279 279 279 280 279 277 277 276 276 275 275 275 274 273 273 272 271 271 271 271 271 271 270 271 271 269 270
279 280 281 281 281 280 281 280 279 278 278 277 277 277 279 279 278 277 277 277 276 275 275 274 274 273 273 273 272 272 272 271 271 271 270 270 270 270 269 269 270 269 270
281 280 280 280 279 279 279 278 277 276 276 275 274 275 276 276 275 274 273 273 273 273 273 273 272 272 271 271 271 270 269 269 269 268 268 268 268 268 268 269 269 269 269
279 278 278 277 277 276 276 277 276 275 274 273 273 273 273 274 273 272 271 271 271 271 271 271 271 270 270 269 268 268 267 267 267 267 267 267 267 268 268 268 267 268 268
277 277 276 276 275 275 275 275 274 274 273 273 272 272 272 271 271 271 270 270 270 269 269 269 268 267 268 267 267 267 266 266 266 266 265 265 266 267 267 266 266 267 267
275 274 273 272 273 273 272 272 271 270 271 271 271 270 269 269 269 268 268 268 268 268 268 267 266 265 265 265 266 266 266 266 265 265 265 265 265 265 266 266 266 266 267
273 272 271 270 270 270 270 270 269 269 269 269 269 269 269 268 268 268 267 267 265 265 265 265 265 264 264 262 262 263 263 262 262 262 263 263 264 264 265 265 266 266 266
270 269 269 269 268 268 268 268 267 267 267 267 267 267 267 267 267 266 265 265 264 263 264 265 264 263 262 263 263 262 260 259 259 259 261 262 263 264 265 265 265 265 266

GFSGL_sfc_thetae_069.txt.gz
Theta_e
324 324 324 324 324 325 326 326 326 327 326 325 324 324 323 323 324 325 324 325 324 325 326 326 326 326 325 322 322 319 315 313 309 312 307 314 309 311 305 308 308 307 306
325 324 326 327 326 326 326 327 328 327 328 326 327 326 325 325 325 325 324 324 324 324 325 325 323 322 322 321 315 313 314 313 311 308 307 306 308 307 302 304 305 306 307
324 324 326 327 327 327 328 328 328 327 327 327 326 325 325 325 325 326 325 325 324 324 324 324 323 320 315 315 314 313 312 311 311 308 304 300 304 300 301 304 302 303 303
322 322 324 326 326 327 328 328 328 328 327 326 326 325 325 324 324 325 324 324 324 324 324 324 321 318 314 314 312 311 310 307 305 302 299 298 297 296 297 295 295 299 299
323 322 323 327 327 326 327 327 327 327 326 327 326 326 326 325 324 324 324 324 322 321 323 322 318 316 309 311 312 309 307 303 300 298 294 291 292 292 292 294 291 293 297
325 324 324 325 325 326 327 327 327 326 326 326 325 325 325 323 309 303 312 325 321 322 320 318 318 307 306 299 299 299 302 300 298 297 295 293 290 291 290 290 288 288 289
326 325 325 325 325 325 326 325 325 325 326 325 325 325 324 325 304 301 299 320 322 318 316 319 315 310 303 305 294 291 288 290 290 295 291 289 288 290 290 288 288 289 289
324 325 325 326 325 325 325 324 325 325 324 324 325 325 325 324 302 299 297 318 321 321 320 317 310 300 299 294 290 285 284 284 285 286 286 285 285 287 289 289 289 289 289
324 325 325 326 325 325 324 324 325 325 324 324 324 323 322 323 298 295 298 311 300 293 294 294 294 291 290 290 286 284 284 283 285 285 285 284 284 284 283 287 286 284 284
322 324 325 326 325 325 326 325 326 325 324 322 311 303 296 306 295 296 298 294 289 286 286 288 288 288 287 289 287 285 281 280 281 280 280 281 282 281 281 283 284 282 282
320 321 323 325 326 326 326 326 326 319 303 295 292 291 291 291 291 292 292 289 286 285 285 284 285 286 286 286 286 284 282 282 281 282 282 282 283 284 284 283 283 282 281
315 313 310 310 312 315 314 308 305 299 293 290 288 286 286 287 287 288 288 287 286 284 283 283 284 284 284 283 283 282 282 281 282 281 282 281 281 282 283 283 283 282 283
301 300 298 297 296 296 296 295 293 293 291 288 285 283 282 283 284 285 285 284 284 283 283 283 282 282 281 280 281 281 281 282 282 281 281 281 282 282 281 281 282 282 282
291 290 290 289 289 289 290 290 288 288 286 285 283 281 281 281 281 282 283 283 282 282 281 281 281 280 279 279 280 281 281 280 280 280 280 280 281 280 280 280 279 279 278
288 287 286 285 284 283 282 284 284 285 286 284 282 281 280 278 280 282 282 282 281 281 281 282 281 281 280 280 280 280 280 280 279 279 278 278 278 278 278 279 278 277 275
286 285 284 284 283 282 281 281 283 283 283 283 282 282 282 283 283 283 283 283 283 283 283 282 282 282 281 281 280 279 279 278 278 277 277 276 276 276 275 276 276 275 274
284 283 283 282 281 281 280 280 278 281 283 283 283 283 283 282 282 282 282 282 283 283 281 281 280 280 279 279 278 277 277 276 276 276 276 275 275 274 273 273 274 274 273
283 282 282 281 281 280 279 279 279 278 277 278 281 281 281 281 281 281 281 282 280 280 279 278 278 277 277 276 276 276 275 275 275 274 273 273 273 272 272 272 272 272 272
282 282 282 282 282 281 280 279 279 278 277 277 278 278 279 280 280 280 280 279 277 277 277 276 276 276 275 275 274 274 273 273 273 273 273 272 272 271 270 271 271 270 270
282 282 282 281 281 281 281 279 279 277 276 277 277 278 279 277 276 275 276 276 275 275 275 274 274 274 273 273 273 273 273 272 272 271 271 270 270 270 269 269 269 269 269
281 281 280 280 280 280 279 278 277 276 274 274 274 276 276 275 274 273 273 273 273 272 272 273 273 272 272 272 271 271 270 270 269 269 269 269 269 268 269 269 269 269 269
280 279 278 278 278 278 277 277 276 275 275 274 274 274 274 274 273 272 271 271 272 272 272 271 271 270 270 269 269 269 268 268 268 268 267 267 267 267 268 268 268 268 267
278 277 277 276 276 276 275 275 275 274 274 273 273 272 272 272 271 271 270 270 270 270 270 269 269 268 269 268 268 268 267 267 267 267 266 265 266 266 267 266 266 266 267
276 276 275 274 274 274 273 273 273 272 272 272 272 271 271 270 270 269 269 268 268 269 269 268 267 267 265 266 267 266 267 266 265 265 265 265 265 265 265 266 266 266 266
274 273 273 273 272 272 272 271 271 271 271 271 270 270 270 270 269 269 268 268 267 267 267 266 267 266 265 264 264 264 264 262 262 261 262 263 263 264 264 265 266 266 266
272 271 271 271 271 271 270 270 270 269 269 269 269 269 268 268 268 268 267 266 264 264 266 266 266 265 264 265 265 263 261 260 260 260 261 261 262 263 265 265 265 265 265

GFSGL_sfc_thetae_075.txt.gz
Theta_e
318 319 320 320 320 320 318 318 317 317 316 318 319 320 320 318 318 317 317 316 316 316 317 317 316 316 316 316 317 317 316 315 311 314 315 315 311 314 314 313 313 310 309
318 318 318 320 321 320 318 318 318 319 319 318 318 318 319 318 317 316 315 316 315 315 316 316 315 316 315 317 317 316 316 316 314 311 314 313 309 311 314 307 307 308 305
318 317 317 317 318 319 320 320 318 318 319 320 319 317 317 317 317 316 315 315 316 316 315 314 314 314 315 316 316 316 317 317 316 315 314 316 312 304 306 304 305 306 305
319 318 317 316 317 317 319 320 320 319 318 319 319 318 317 317 316 316 316 315 315 316 315 315 315 314 314 315 315 316 317 317 317 314 313 313 307 303 306 307 300 302 302
319 318 318 318 318 318 318 319 319 319 319 319 318 319 318 317 317 316 316 316 315 315 315 315 315 313 308 311 315 315 316 316 315 313 310 310 301 294 298 303 303 302 295
318 318 319 320 320 319 319 319 319 319 319 319 319 318 318 318 308 302 310 316 315 314 314 315 316 306 306 301 301 303 313 315 313 312 311 308 308 303 300 294 289 288 288
319 318 318 318 319 320 320 320 319 319 319 318 319 318 318 318 303 301 299 315 316 316 315 315 314 314 305 312 298 292 289 289 292 305 308 308 297 291 290 287 286 286 285
314 316 318 318 318 319 320 320 320 320 319 319 319 319 319 319 302 300 297 309 315 315 315 315 314 314 309 306 293 287 286 286 287 289 290 287 288 289 289 288 286 285 285
306 307 306 309 310 319 317 318 319 319 319 319 319 318 317 319 301 300 299 311 312 313 297 295 301 303 297 295 289 285 283 283 287 287 287 287 287 287 288 287 284 284 282
300 300 299 299 301 302 307 310 316 318 318 318 315 304 294 306 292 294 296 307 300 289 287 288 289 291 289 289 287 285 281 281 281 282 282 282 283 284 285 285 284 281 282
296 296 294 293 294 294 298 299 299 305 305 299 295 290 289 290 291 292 293 294 294 286 285 285 286 288 288 287 286 284 282 282 281 282 282 282 283 283 282 282 282 282 281
292 291 289 289 289 289 289 291 292 293 293 290 287 285 285 286 287 287 288 287 287 284 283 284 285 285 285 284 283 283 283 282 282 281 280 280 280 280 280 280 281 281 282
289 287 286 286 285 286 285 285 285 288 287 285 284 283 284 284 283 285 285 284 284 283 283 283 284 283 283 282 283 283 282 282 281 280 279 278 279 280 281 281 281 281 281
286 284 284 283 282 283 284 283 283 283 283 283 283 281 281 282 281 281 281 281 280 280 280 280 280 280 280 279 279 280 280 279 278 278 277 278 279 278 278 278 277 277 277
284 284 282 282 281 281 281 282 282 282 283 281 281 281 280 279 281 282 281 280 280 280 281 280 279 279 278 277 278 277 277 277 276 276 276 276 276 276 275 276 276 275 273
282 282 281 281 281 280 280 280 283 283 284 284 284 283 283 284 285 285 285 284 284 283 280 278 277 277 277 276 275 274 275 275 275 274 274 274 273 273 273 273 274 273 271
281 281 281 280 280 279 279 278 276 279 281 282 283 283 283 283 283 283 282 281 281 279 276 276 275 275 274 274 274 273 272 272 273 273 272 272 272 271 270 270 270 269 269
281 280 280 279 279 278 277 277 277 276 274 275 279 280 281 281 281 280 280 278 274 275 274 273 273 273 273 272 272 272 272 271 271 271 269 269 268 269 268 268 267 265 267
280 280 279 278 277 277 276 275 275 275 275 274 274 274 275 277 277 277 276 273 272 272 272 271 271 271 271 271 270 269 269 268 268 267 267 266 265 266 265 266 265 264 265
278 278 278 277 276 275 274 273 273 273 272 272 271 272 272 272 270 270 270 270 270 270 271 270 269 269 268 268 267 267 267 266 265 266 263 261 260 262 261 262 261 261 265
276 275 276 276 276 275 274 273 273 272 271 270 270 272 271 270 268 268 267 267 267 267 267 267 266 266 266 265 265 264 263 263 263 262 261 259 253 258 261 260 260 263 264
275 275 274 273 273 273 273 273 272 271 270 269 268 268 268 267 267 267 266 265 265 265 265 265 264 264 264 263 263 260 261 260 259 257 257 258 258 259 259 258 257 256 261
274 272 272 273 272 271 270 271 270 269 268 266 266 266 265 262 263 263 262 263 264 261 262 262 260 261 261 259 259 259 260 258 255 252 252 252 256 257 255 254 257 257 256
271 270 271 270 270 269 268 268 268 267 267 266 265 266 265 264 261 257 257 255 258 256 255 260 259 259 259 255 253 257 257 252 253 252 249 250 254 257 255 257 258 256 258
268 267 267 267 267 266 265 265 265 264 263 263 263 263 264 263 263 259 256 256 257 257 261 261 259 257 255 255 256 256 254 254 251 252 251 251 250 251 253 256 258 261 257
267 266 265 265 264 264 262 260 260 262 259 259 258 261 259 259 259 260 255 256 256 257 256 255 256 256 256 258 258 256 253 254 253 254 251 253 252 253 253 254 255 256 259

GFSGL_sfc_thetae_078.txt.gz
Theta_e
319 320 319 320 319 318 316 314 312 313 315 316 318 318 318 319 319 318 319 318 317 317 317 315 315 316 316 316 316 316 315 314 310 312 313 314 309 311 312 311 313 313 313
318 318 319 320 320 319 318 318 315 313 314 315 317 317 318 318 318 318 317 317 315 315 315 315 314 315 314 315 315 314 314 314 311 309 312 312 309 313 313 311 312 313 313
317 317 317 318 318 319 319 319 319 316 315 314 315 316 316 317 317 316 316 315 315 314 314 313 314 314 313 314 314 314 313 313 313 312 312 314 314 310 310 309 312 311 310
317 316 316 316 317 318 320 319 318 319 318 318 316 316 316 316 317 317 316 314 314 313 313 314 314 313 313 313 313 313 314 313 313 313 313 313 315 313 309 311 308 307 308
317 316 315 316 317 317 317 318 319 319 318 318 318 318 317 316 316 316 316 315 314 313 313 314 314 313 308 310 313 313 313 312 312 312 312 313 313 299 303 310 306 309 296
316 317 317 317 316 316 316 316 317 318 319 319 317 317 317 317 307 302 309 314 314 313 312 313 314 305 305 300 300 302 309 311 311 312 312 311 312 313 309 307 308 291 293
316 316 316 317 317 317 317 316 316 316 317 317 317 317 316 317 303 300 299 314 314 313 313 313 313 313 305 311 302 297 296 293 295 311 312 313 313 314 310 291 289 288 286
304 304 305 304 308 311 318 317 317 317 317 316 317 317 317 317 301 300 297 310 314 315 315 315 314 313 312 311 310 300 294 288 289 290 293 293 289 291 293 292 288 285 285
299 299 299 301 302 304 305 306 314 317 317 317 318 317 316 317 298 299 299 312 313 314 315 315 312 313 308 300 304 291 285 284 287 288 287 286 287 287 289 289 285 286 282
293 293 294 295 296 297 299 299 300 303 310 315 301 292 289 291 288 290 293 307 309 309 294 290 288 291 292 293 304 290 284 282 283 282 282 283 283 284 284 284 284 282 282
290 289 288 288 290 290 293 294 295 297 294 291 287 286 286 286 286 288 288 291 295 287 285 285 286 287 287 287 286 285 282 283 282 282 281 281 281 281 281 281 281 281 280
287 285 284 284 285 286 286 288 290 290 288 287 286 284 283 283 284 285 286 286 286 284 283 283 284 285 285 284 283 284 283 282 281 280 279 278 278 279 280 281 281 281 281
284 282 283 283 283 283 283 283 284 286 285 284 283 282 282 282 282 283 283 283 283 282 282 283 283 283 283 281 282 282 282 281 279 278 277 277 279 280 280 280 280 280 280
284 282 282 282 281 282 283 283 282 282 282 282 282 281 280 280 280 281 281 282 281 281 280 280 280 280 279 278 278 279 278 278 277 276 276 277 278 277 276 277 276 276 276
283 282 282 281 281 280 280 281 282 283 283 281 281 281 280 279 281 283 282 281 281 281 280 279 278 277 276 276 276 276 277 276 275 275 275 274 274 274 274 275 274 274 272
281 281 281 280 280 280 279 278 282 283 283 283 284 283 282 283 283 283 283 282 282 281 278 276 275 275 274 274 273 273 273 273 273 273 273 273 272 272 272 272 272 271 269
280 280 279 279 279 278 278 277 275 277 279 280 281 281 282 281 281 281 280 279 279 277 274 273 272 272 272 273 272 272 271 272 273 271 270 270 270 270 270 269 268 268 268
277 277 276 276 276 276 276 276 275 273 272 272 276 278 279 279 279 279 278 276 273 273 272 271 271 271 271 271 271 270 270 270 269 269 268 267 267 267 266 266 266 263 266
278 276 275 274 273 273 273 273 273 272 271 271 272 272 273 275 275 275 274 271 270 270 270 269 269 269 269 269 268 268 267 266 266 265 265 263 259 263 262 264 263 262 263
274 274 273 273 272 272 271 271 271 271 270 270 270 270 270 270 267 267 267 267 267 268 268 267 267 266 266 266 265 264 264 263 263 263 260 258 256 260 259 260 260 260 263
272 272 272 273 273 273 272 271 271 270 269 268 268 269 269 267 266 265 265 265 265 265 265 264 263 261 261 261 262 261 260 259 259 257 258 258 253 258 261 260 260 262 263
273 272 272 271 271 271 271 270 269 269 268 267 266 267 266 265 265 265 264 263 262 264 264 263 262 262 261 259 258 255 255 252 253 254 254 255 256 257 257 257 255 254 259
270 269 270 270 269 268 268 268 267 266 266 265 265 265 264 263 262 262 261 259 260 259 259 259 258 258 256 253 254 255 255 253 252 250 249 249 253 253 252 252 254 253 255
268 267 268 266 266 265 265 265 265 264 264 264 264 263 263 261 259 257 256 254 254 255 254 252 255 256 256 250 250 254 255 250 251 251 248 248 251 253 251 253 255 253 254
266 265 264 263 262 259 259 261 261 259 259 258 260 260 260 261 256 251 251 254 255 254 257 256 256 256 254 253 254 255 253 253 250 251 249 249 248 248 250 253 253 255 253
265 264 263 262 261 259 257 256 254 253 251 251 252 251 251 255 254 250 251 253 253 254 255 254 258 256 256 256 256 254 252 253 250 251 247 250 248 249 249 249 251 252 256

GFSGL_sfc_thetae_084.txt.gz
Theta_e
318 316 317 317 316 314 313 312 312 312 314 317 318 318 317 318 318 317 316 316 316 316 316 316 315 316 316 316 316 316 314 313 309 311 314 315 312 314 314 315 314 314 313
315 317 318 317 316 316 315 313 311 311 313 314 316 317 317 317 317 317 317 317 316 315 316 315 315 316 315 316 315 314 314 314 312 309 312 313 311 314 314 314 314 314 314
315 317 318 317 317 315 314 313 310 310 311 312 314 315 316 316 317 317 316 316 315 315 316 316 315 315 314 315 314 314 314 314 313 311 310 314 314 315 312 312 313 314 314
313 313 312 313 315 317 317 315 313 312 310 310 313 314 313 314 316 316 316 316 316 316 316 316 316 315 315 314 314 314 313 313 312 311 311 312 313 315 312 311 310 311 311
313 312 312 312 313 313 313 314 315 315 313 311 311 312 313 313 314 314 315 314 314 314 313 314 315 313 308 311 315 314 313 311 312 311 310 311 311 310 310 312 310 312 313
313 313 316 313 313 312 312 312 312 313 313 313 312 313 312 313 303 300 309 315 315 314 314 314 314 305 305 300 300 302 310 313 310 309 310 308 309 310 312 311 310 308 306
304 304 304 309 314 314 314 314 315 315 315 313 314 315 315 314 298 299 298 312 313 314 314 314 313 313 304 311 302 296 297 297 300 311 310 309 309 311 310 310 309 308 308
295 295 297 299 300 302 304 304 308 312 315 315 314 315 315 294 289 290 290 304 312 313 314 314 313 313 313 310 310 309 306 303 292 296 297 294 287 287 291 296 294 286 286
289 290 292 293 293 295 294 295 298 302 299 293 292 293 292 289 288 289 290 298 305 310 309 290 290 292 290 292 296 301 294 284 286 286 286 285 285 285 286 290 286 289 285
286 286 288 289 289 289 290 291 293 292 289 288 286 286 286 286 287 288 289 295 295 289 286 286 286 287 287 289 292 292 285 283 282 282 282 282 282 283 283 282 283 282 281
285 285 285 286 286 287 287 288 289 288 286 284 283 283 283 284 285 286 287 287 286 285 284 283 284 285 285 286 286 286 284 283 282 281 280 280 280 279 279 280 279 280 277
283 283 283 284 284 285 285 285 286 286 284 283 282 282 282 282 284 285 285 284 284 282 281 281 282 283 282 282 282 282 282 281 279 278 277 276 276 277 278 278 279 279 279
283 282 282 282 283 283 283 283 282 283 282 282 281 281 281 282 282 283 283 282 282 280 280 280 280 280 279 279 279 279 278 278 276 275 274 274 275 276 278 278 279 278 277
281 280 281 280 280 281 281 282 282 282 281 281 280 280 280 280 280 279 279 279 279 278 277 276 276 276 275 275 275 276 275 275 275 274 274 275 275 274 274 276 274 276 274
281 280 279 279 278 278 279 279 280 281 281 279 279 280 278 278 280 281 279 276 275 276 275 275 273 273 272 273 273 273 273 273 272 273 272 272 272 272 272 273 273 272 271
279 279 278 278 277 276 275 276 280 281 281 281 281 280 280 281 281 280 280 279 278 277 273 271 270 270 270 271 270 270 270 270 271 271 271 271 270 270 269 270 271 270 269
276 276 275 275 275 274 272 272 270 273 277 278 279 279 280 279 279 279 278 277 276 274 269 269 269 269 270 270 269 269 268 269 269 268 268 268 269 268 268 268 268 268 267
272 271 271 270 270 269 268 268 268 267 267 268 272 275 276 276 276 276 275 272 268 269 268 267 267 267 268 267 267 267 266 266 265 265 265 265 265 266 266 266 266 265 266
272 270 269 269 268 268 268 268 267 266 265 265 266 267 267 272 272 271 270 266 265 264 265 265 264 265 265 265 264 264 263 262 262 261 262 263 262 264 264 264 264 264 264
269 271 269 269 268 267 267 266 265 265 264 263 263 263 264 264 262 262 262 262 262 262 263 263 263 263 262 262 260 260 261 260 261 261 260 259 259 262 261 261 262 262 263
268 268 268 268 268 267 266 265 265 264 263 262 261 261 262 262 260 260 261 260 260 260 259 261 260 259 260 259 260 258 257 257 258 258 258 259 256 259 260 260 260 262 262
267 268 268 267 266 265 265 264 263 263 262 261 260 260 259 259 259 259 258 255 255 259 260 258 259 259 258 258 257 255 254 253 254 254 255 255 256 256 257 258 257 258 260
265 264 265 265 265 262 261 262 260 259 258 257 258 259 257 254 254 256 255 253 256 255 256 257 256 257 256 255 256 256 256 255 255 252 253 253 255 255 254 256 257 257 257
263 261 264 260 259 259 256 254 256 258 257 254 252 252 252 249 248 250 250 251 253 251 251 251 255 257 257 253 254 256 257 254 254 254 251 253 254 255 254 256 256 255 256
259 258 257 256 254 252 252 252 250 249 250 249 250 251 253 253 252 247 247 249 251 248 252 252 253 255 254 253 253 255 253 252 250 250 251 251 251 250 252 254 254 256 255
259 258 256 255 252 250 249 247 246 246 247 247 246 246 247 249 249 245 248 249 250 250 252 253 253 252 253 255 257 256 252 252 251 249 249 253 252 252 252 252 253 255 256

GFSGL_sfc_thetae_087.txt.gz
Theta_e
317 319 318 317 318 318 319 320 319 318 319 319 319 319 319 318 316 315 314 317 317 317 317 316 316 317 316 316 316 317 318 317 313 314 317 315 314 316 317 318 317 317 317
318 320 320 319 317 317 318 318 319 321 322 321 320 318 318 318 319 317 315 316 317 317 317 317 316 317 316 317 316 315 315 316 314 313 319 321 321 322 323 321 319 320 321
318 320 319 318 318 317 317 317 316 318 320 320 321 321 320 318 317 318 318 318 317 316 317 316 316 317 316 319 320 319 317 317 317 316 317 321 321 323 321 322 321 323 322
321 321 319 319 320 319 318 317 316 317 318 320 320 321 321 321 321 319 318 318 318 318 318 320 320 319 320 320 317 316 315 315 315 313 313 314 317 321 321 319 319 322 321
319 320 319 320 322 321 321 321 320 318 317 318 319 320 321 321 320 321 320 318 318 318 319 320 322 318 309 314 320 321 320 318 316 315 314 314 314 315 315 317 314 316 320
317 316 318 319 320 320 320 320 321 320 319 318 317 318 318 316 303 301 311 317 318 318 318 320 320 308 307 300 300 302 311 316 314 312 312 310 311 312 313 312 312 311 308
301 301 303 309 309 310 314 316 317 318 319 317 317 316 315 307 290 292 295 316 317 317 317 316 315 315 308 316 304 297 298 296 297 308 310 311 310 308 305 309 311 311 309
294 294 296 298 298 299 300 302 305 304 300 302 299 303 294 290 289 289 289 304 309 313 305 297 298 300 293 294 299 305 301 287 288 290 288 287 286 287 290 292 292 287 287
288 290 291 293 293 293 294 295 297 294 291 290 289 290 289 287 288 289 292 301 302 292 289 288 288 289 288 289 293 293 285 284 286 287 286 285 284 284 284 290 288 288 286
286 287 288 289 290 289 290 290 290 289 287 286 285 285 286 285 287 288 291 296 290 286 285 285 285 286 286 287 290 291 285 284 284 283 282 281 282 281 282 282 283 285 283
286 287 287 287 287 288 288 288 288 287 285 284 283 283 284 284 285 286 287 287 285 283 282 282 283 284 284 284 284 283 283 282 280 280 280 280 280 280 280 281 281 281 279
285 284 285 285 286 287 286 286 286 286 284 283 283 282 283 283 284 284 284 284 284 282 281 282 282 282 282 282 282 281 281 280 280 278 278 277 278 279 280 280 279 279 279
283 282 282 283 284 284 285 285 285 285 284 283 283 282 282 283 283 282 282 281 281 281 281 280 280 280 280 280 279 280 281 281 281 280 279 278 279 279 281 281 281 279 278
282 281 282 282 282 283 283 283 283 283 283 282 282 282 282 283 283 283 282 282 280 280 279 279 278 278 278 278 280 280 280 280 279 279 278 278 279 278 278 278 278 279 276
281 281 280 280 281 280 280 281 281 282 282 280 280 281 280 280 281 282 281 281 281 279 280 280 279 279 278 278 277 277 278 278 277 278 277 277 276 276 275 276 276 276 274
280 279 279 279 279 279 279 278 280 280 281 281 281 281 281 280 280 280 279 278 278 278 278 277 276 276 275 275 275 274 274 273 275 275 275 274 274 273 273 274 274 274 273
277 278 278 278 278 277 277 276 274 274 277 277 278 279 279 279 279 278 277 276 276 277 275 274 274 274 274 273 273 272 272 272 272 272 272 272 272 272 272 271 272 272 271
275 273 276 276 275 275 275 274 274 274 272 272 273 274 276 276 275 275 274 275 274 273 273 272 272 272 272 271 271 270 270 270 270 270 270 270 271 271 270 270 270 269 270
276 275 274 274 273 273 274 273 272 271 270 270 272 271 270 271 271 271 272 271 270 270 270 270 270 270 270 269 269 268 268 267 267 268 268 268 268 269 269 269 269 266 268
274 272 273 274 273 273 272 271 271 270 269 269 268 268 270 270 269 268 268 268 268 268 268 268 268 268 268 268 268 268 267 267 266 267 266 266 267 268 267 267 267 267 268
274 273 271 273 273 272 271 270 270 269 268 267 266 265 264 267 266 266 266 266 266 266 266 267 267 267 267 266 266 266 264 265 264 264 264 265 264 265 266 267 267 267 267
273 273 272 271 271 270 270 269 269 268 267 266 266 264 264 266 266 265 265 265 265 266 266 266 266 265 265 265 264 264 263 262 262 262 262 262 263 264 264 265 265 265 266
271 271 270 270 269 267 268 268 267 267 266 266 265 265 264 264 264 264 263 264 264 264 264 265 265 264 264 263 264 264 263 262 261 261 261 261 262 263 263 264 264 264 264
269 269 268 267 267 267 267 266 266 264 265 265 265 264 263 263 263 262 262 263 263 263 263 263 263 263 263 263 264 264 263 262 262 261 259 260 261 261 262 262 263 262 263
267 267 266 266 266 265 265 265 264 264 264 264 264 264 264 264 263 262 261 261 261 261 261 261 262 261 261 260 260 260 259 258 259 256 260 259 259 258 259 261 261 262 262
266 265 265 265 265 265 264 264 263 263 263 263 263 263 262 262 261 261 261 260 260 260 260 261 261 260 260 262 260 258 258 258 258 256 258 260 259 260 260 260 259 261 262

GFSGL_sfc_thetae_090.txt.gz
Theta_e
321 321 323 321 322 322 322 321 320 320 318 317 315 315 314 313 314 313 312 316 319 318 319 321 320 322 320 322 322 321 317 319 313 318 323 325 324 324 324 321 319 321 323
320 320 321 320 322 320 321 321 320 320 321 321 319 318 317 316 314 313 312 313 316 317 319 318 318 319 318 317 317 316 316 317 314 312 316 317 317 319 322 324 324 324 325
319 320 320 319 322 322 323 324 325 323 321 321 320 319 318 317 315 314 314 312 313 316 319 320 319 318 317 317 316 315 316 320 319 318 318 321 323 325 325 326 326 328 327
319 319 320 321 320 321 322 322 323 324 323 323 323 322 321 320 320 318 315 316 315 317 318 318 318 318 317 317 317 318 317 317 318 315 314 316 319 324 324 322 322 326 323
321 318 319 320 321 321 321 320 320 320 321 324 323 323 323 322 321 321 320 319 318 321 322 321 322 316 309 314 322 321 321 321 320 320 318 317 318 319 318 319 316 318 320
318 317 320 321 321 322 321 322 321 319 319 319 319 322 323 320 291 294 312 323 322 321 320 322 322 310 310 301 301 302 310 320 317 316 314 312 312 314 315 313 313 311 310
302 302 304 307 307 308 315 318 319 320 322 319 318 319 303 297 289 291 290 316 320 319 318 318 317 317 307 316 303 297 297 290 291 302 306 307 300 292 293 297 296 293 291
294 295 297 298 298 300 301 302 299 299 297 297 296 294 292 290 289 289 289 306 313 295 292 293 296 296 291 293 298 294 288 287 288 288 287 285 284 285 287 291 292 290 287
289 290 291 293 294 294 293 293 293 291 289 289 289 289 289 287 288 289 295 298 291 288 287 287 288 288 287 289 294 289 285 284 285 285 285 284 284 284 286 291 287 288 289
287 288 289 290 290 290 289 289 288 288 286 286 285 286 286 285 287 288 293 290 285 284 284 284 285 285 285 287 293 288 284 283 282 283 282 283 284 283 283 284 288 285 285
286 287 288 289 288 288 288 288 287 286 285 284 283 284 284 285 285 286 287 286 284 282 282 282 283 284 284 284 284 284 282 282 282 282 282 282 283 283 283 284 284 286 285
285 286 287 288 288 289 288 288 287 286 285 284 284 283 284 284 284 284 285 285 286 284 283 283 283 283 283 283 283 282 282 284 284 284 283 283 283 283 283 283 282 283 283
284 284 286 287 287 287 287 287 287 287 286 285 285 285 285 285 285 282 282 282 283 283 283 282 282 282 282 282 282 283 284 286 285 283 282 282 282 282 284 284 284 284 282
282 284 284 283 283 285 285 284 285 285 285 285 284 283 283 284 284 285 285 284 283 283 282 284 282 282 282 282 283 284 283 282 282 282 281 282 283 282 281 282 281 283 282
283 282 282 283 282 281 281 282 282 282 283 282 282 283 282 281 281 281 283 283 283 283 284 285 283 283 282 282 281 281 281 282 281 281 281 281 280 280 279 280 280 280 279
281 281 281 281 281 281 279 277 279 280 280 280 281 281 281 280 280 280 279 280 280 282 283 281 280 280 280 279 279 279 278 277 278 278 279 278 277 277 277 278 278 278 277
280 281 280 281 281 281 281 281 278 277 276 277 278 278 278 278 278 278 278 278 280 281 280 278 278 278 278 277 277 277 276 275 276 276 276 276 276 276 276 276 276 276 276
279 279 280 280 280 280 279 279 279 278 277 276 274 275 275 276 276 276 278 280 279 278 278 277 276 276 276 275 275 274 274 275 274 274 274 274 275 275 274 274 274 273 274
280 279 279 278 278 279 279 278 278 278 277 276 277 275 274 274 274 275 276 277 276 275 275 274 275 275 274 274 274 273 272 272 272 272 273 272 273 273 272 272 273 270 270
278 277 278 279 278 278 278 277 277 276 276 274 272 272 276 276 274 273 274 274 274 273 273 273 273 273 273 273 272 272 272 271 271 271 271 271 271 272 271 271 271 271 271
279 278 277 278 277 277 277 276 275 274 273 272 270 269 269 273 272 272 271 271 271 271 271 272 272 271 272 271 271 271 269 270 269 269 269 269 269 269 270 271 271 270 270
277 277 277 276 276 275 275 274 274 273 272 272 271 269 269 272 271 271 270 270 270 271 271 271 270 270 269 269 269 269 268 267 267 267 267 267 268 269 269 269 269 269 269
276 276 275 274 274 273 274 273 273 273 272 271 271 270 270 270 269 269 268 269 269 269 268 269 269 268 268 268 268 268 267 266 266 265 264 266 267 268 267 268 268 267 268
274 274 273 273 272 273 273 272 271 269 270 270 270 270 269 269 268 267 267 267 267 268 267 267 267 265 266 266 268 268 267 265 265 265 263 264 265 265 265 266 267 266 266
273 272 272 272 271 271 271 271 270 270 270 270 269 269 269 269 268 267 267 266 265 266 265 265 265 265 264 263 263 263 262 261 261 260 264 264 264 263 264 264 265 265 266
271 270 270 271 270 270 270 269 269 269 268 268 268 268 268 267 267 266 266 265 264 265 263 266 264 262 262 265 264 262 260 260 261 259 260 263 263 264 264 264 264 264 265